<?xml version="1.0"?>
<gpx xmlns="http://www.topografix.com/GPX/1/1" xmlns:xsi="http://www.w3.org/2001/XMLSchema-instance" version="1.1" creator="GPX RubyGem 1.0.0 -- http://dougfales.github.io/gpx/" xsi:schemaLocation="http://www.topografix.com/GPX/1/1 http://www.topografix.com/GPX/1/1/gpx.xsd">
  <metadata>
    <name/>
    <time>2026-05-08T14:29:08+00:00</time>
    <bound minlat="90.0" minlon="180.0" maxlat="-90.0" maxlon="-180.0"/>
  </metadata>
  <trk>
    <name/>
    <trkseg>
      <trkpt lat="44.573225" lon="6.973054">
        <time>1970-01-01T00:00:00+00:00</time>
        <ele>1850.0</ele>
      </trkpt>
      <trkpt lat="44.573213" lon="6.97301">
        <time>1970-01-01T00:00:00+00:00</time>
        <ele>1851.0</ele>
      </trkpt>
      <trkpt lat="44.573245" lon="6.972903">
        <time>1970-01-01T00:00:00+00:00</time>
        <ele>1851.0</ele>
      </trkpt>
      <trkpt lat="44.573312" lon="6.972739">
        <time>1970-01-01T00:00:00+00:00</time>
        <ele>1852.0</ele>
      </trkpt>
      <trkpt lat="44.573504" lon="6.972325">
        <time>1970-01-01T00:00:00+00:00</time>
        <ele>1859.0</ele>
      </trkpt>
      <trkpt lat="44.573652" lon="6.971935">
        <time>1970-01-01T00:00:00+00:00</time>
        <ele>1865.0</ele>
      </trkpt>
      <trkpt lat="44.57378" lon="6.971454">
        <time>1970-01-01T00:00:00+00:00</time>
        <ele>1875.0</ele>
      </trkpt>
      <trkpt lat="44.573786" lon="6.971326">
        <time>1970-01-01T00:00:00+00:00</time>
        <ele>1878.0</ele>
      </trkpt>
      <trkpt lat="44.573727" lon="6.970554">
        <time>1970-01-01T00:00:00+00:00</time>
        <ele>1887.0</ele>
      </trkpt>
      <trkpt lat="44.57407" lon="6.969528">
        <time>1970-01-01T00:00:00+00:00</time>
        <ele>1898.0</ele>
      </trkpt>
      <trkpt lat="44.574152" lon="6.969396">
        <time>1970-01-01T00:00:00+00:00</time>
        <ele>1900.0</ele>
      </trkpt>
      <trkpt lat="44.574282" lon="6.96925">
        <time>1970-01-01T00:00:00+00:00</time>
        <ele>1902.0</ele>
      </trkpt>
      <trkpt lat="44.574357" lon="6.969059">
        <time>1970-01-01T00:00:00+00:00</time>
        <ele>1904.0</ele>
      </trkpt>
      <trkpt lat="44.574543" lon="6.968175">
        <time>1970-01-01T00:00:00+00:00</time>
        <ele>1913.0</ele>
      </trkpt>
      <trkpt lat="44.574901" lon="6.967004">
        <time>1970-01-01T00:00:00+00:00</time>
        <ele>1923.0</ele>
      </trkpt>
      <trkpt lat="44.57524" lon="6.9666">
        <time>1970-01-01T00:00:00+00:00</time>
        <ele>1934.0</ele>
      </trkpt>
      <trkpt lat="44.575237" lon="6.966235">
        <time>1970-01-01T00:00:00+00:00</time>
        <ele>1935.0</ele>
      </trkpt>
      <trkpt lat="44.575349" lon="6.96603">
        <time>1970-01-01T00:00:00+00:00</time>
        <ele>1939.0</ele>
      </trkpt>
      <trkpt lat="44.575381" lon="6.965665">
        <time>1970-01-01T00:00:00+00:00</time>
        <ele>1944.0</ele>
      </trkpt>
      <trkpt lat="44.575378" lon="6.965435">
        <time>1970-01-01T00:00:00+00:00</time>
        <ele>1945.0</ele>
      </trkpt>
      <trkpt lat="44.575454" lon="6.965147">
        <time>1970-01-01T00:00:00+00:00</time>
        <ele>1951.0</ele>
      </trkpt>
      <trkpt lat="44.575484" lon="6.964778">
        <time>1970-01-01T00:00:00+00:00</time>
        <ele>1956.0</ele>
      </trkpt>
      <trkpt lat="44.57556" lon="6.964636">
        <time>1970-01-01T00:00:00+00:00</time>
        <ele>1961.0</ele>
      </trkpt>
      <trkpt lat="44.57551" lon="6.964476">
        <time>1970-01-01T00:00:00+00:00</time>
        <ele>1960.0</ele>
      </trkpt>
      <trkpt lat="44.575495" lon="6.964262">
        <time>1970-01-01T00:00:00+00:00</time>
        <ele>1962.0</ele>
      </trkpt>
      <trkpt lat="44.575614" lon="6.964126">
        <time>1970-01-01T00:00:00+00:00</time>
        <ele>1971.0</ele>
      </trkpt>
      <trkpt lat="44.575605" lon="6.963835">
        <time>1970-01-01T00:00:00+00:00</time>
        <ele>1974.0</ele>
      </trkpt>
      <trkpt lat="44.575521" lon="6.963543">
        <time>1970-01-01T00:00:00+00:00</time>
        <ele>1977.0</ele>
      </trkpt>
      <trkpt lat="44.575512" lon="6.963234">
        <time>1970-01-01T00:00:00+00:00</time>
        <ele>1982.0</ele>
      </trkpt>
      <trkpt lat="44.575611" lon="6.962882">
        <time>1970-01-01T00:00:00+00:00</time>
        <ele>1990.0</ele>
      </trkpt>
      <trkpt lat="44.575585" lon="6.962534">
        <time>1970-01-01T00:00:00+00:00</time>
        <ele>1993.0</ele>
      </trkpt>
      <trkpt lat="44.575472" lon="6.96225">
        <time>1970-01-01T00:00:00+00:00</time>
        <ele>1993.0</ele>
      </trkpt>
      <trkpt lat="44.57551" lon="6.962086">
        <time>1970-01-01T00:00:00+00:00</time>
        <ele>1998.0</ele>
      </trkpt>
      <trkpt lat="44.575514" lon="6.961759">
        <time>1970-01-01T00:00:00+00:00</time>
        <ele>2004.0</ele>
      </trkpt>
      <trkpt lat="44.575494" lon="6.961667">
        <time>1970-01-01T00:00:00+00:00</time>
        <ele>2004.0</ele>
      </trkpt>
      <trkpt lat="44.575523" lon="6.961575">
        <time>1970-01-01T00:00:00+00:00</time>
        <ele>2006.0</ele>
      </trkpt>
      <trkpt lat="44.57555" lon="6.961486">
        <time>1970-01-01T00:00:00+00:00</time>
        <ele>2008.0</ele>
      </trkpt>
      <trkpt lat="44.57578" lon="6.961222">
        <time>1970-01-01T00:00:00+00:00</time>
        <ele>2019.0</ele>
      </trkpt>
      <trkpt lat="44.575672" lon="6.96105">
        <time>1970-01-01T00:00:00+00:00</time>
        <ele>2016.0</ele>
      </trkpt>
      <trkpt lat="44.575677" lon="6.960972">
        <time>1970-01-01T00:00:00+00:00</time>
        <ele>2017.0</ele>
      </trkpt>
      <trkpt lat="44.575585" lon="6.960735">
        <time>1970-01-01T00:00:00+00:00</time>
        <ele>2012.0</ele>
      </trkpt>
      <trkpt lat="44.575685" lon="6.959905">
        <time>1970-01-01T00:00:00+00:00</time>
        <ele>2021.0</ele>
      </trkpt>
      <trkpt lat="44.575481" lon="6.959401">
        <time>1970-01-01T00:00:00+00:00</time>
        <ele>2016.0</ele>
      </trkpt>
      <trkpt lat="44.575418" lon="6.959208">
        <time>1970-01-01T00:00:00+00:00</time>
        <ele>2014.0</ele>
      </trkpt>
      <trkpt lat="44.575375" lon="6.959134">
        <time>1970-01-01T00:00:00+00:00</time>
        <ele>2012.0</ele>
      </trkpt>
      <trkpt lat="44.57544" lon="6.958946">
        <time>1970-01-01T00:00:00+00:00</time>
        <ele>2013.0</ele>
      </trkpt>
      <trkpt lat="44.575565" lon="6.958874">
        <time>1970-01-01T00:00:00+00:00</time>
        <ele>2017.0</ele>
      </trkpt>
      <trkpt lat="44.575565" lon="6.958598">
        <time>1970-01-01T00:00:00+00:00</time>
        <ele>2013.0</ele>
      </trkpt>
      <trkpt lat="44.575685" lon="6.958413">
        <time>1970-01-01T00:00:00+00:00</time>
        <ele>2016.0</ele>
      </trkpt>
      <trkpt lat="44.575815" lon="6.958328">
        <time>1970-01-01T00:00:00+00:00</time>
        <ele>2020.0</ele>
      </trkpt>
      <trkpt lat="44.575917" lon="6.958205">
        <time>1970-01-01T00:00:00+00:00</time>
        <ele>2023.0</ele>
      </trkpt>
      <trkpt lat="44.575968" lon="6.958003">
        <time>1970-01-01T00:00:00+00:00</time>
        <ele>2023.0</ele>
      </trkpt>
      <trkpt lat="44.57606" lon="6.95788">
        <time>1970-01-01T00:00:00+00:00</time>
        <ele>2025.0</ele>
      </trkpt>
      <trkpt lat="44.576421" lon="6.957685">
        <time>1970-01-01T00:00:00+00:00</time>
        <ele>2033.0</ele>
      </trkpt>
      <trkpt lat="44.576458" lon="6.957497">
        <time>1970-01-01T00:00:00+00:00</time>
        <ele>2032.0</ele>
      </trkpt>
      <trkpt lat="44.576523" lon="6.957282">
        <time>1970-01-01T00:00:00+00:00</time>
        <ele>2032.0</ele>
      </trkpt>
      <trkpt lat="44.576625" lon="6.957185">
        <time>1970-01-01T00:00:00+00:00</time>
        <ele>2035.0</ele>
      </trkpt>
      <trkpt lat="44.576833" lon="6.957159">
        <time>1970-01-01T00:00:00+00:00</time>
        <ele>2041.0</ele>
      </trkpt>
      <trkpt lat="44.577134" lon="6.956899">
        <time>1970-01-01T00:00:00+00:00</time>
        <ele>2051.0</ele>
      </trkpt>
      <trkpt lat="44.577255" lon="6.956753">
        <time>1970-01-01T00:00:00+00:00</time>
        <ele>2054.0</ele>
      </trkpt>
      <trkpt lat="44.577391" lon="6.956646">
        <time>1970-01-01T00:00:00+00:00</time>
        <ele>2058.0</ele>
      </trkpt>
      <trkpt lat="44.577526" lon="6.956633">
        <time>1970-01-01T00:00:00+00:00</time>
        <ele>2062.0</ele>
      </trkpt>
      <trkpt lat="44.577585" lon="6.956548">
        <time>1970-01-01T00:00:00+00:00</time>
        <ele>2065.0</ele>
      </trkpt>
      <trkpt lat="44.577594" lon="6.956421">
        <time>1970-01-01T00:00:00+00:00</time>
        <ele>2067.0</ele>
      </trkpt>
      <trkpt lat="44.577592" lon="6.956365">
        <time>1970-01-01T00:00:00+00:00</time>
        <ele>2067.0</ele>
      </trkpt>
      <trkpt lat="44.577529" lon="6.956182">
        <time>1970-01-01T00:00:00+00:00</time>
        <ele>2067.0</ele>
      </trkpt>
      <trkpt lat="44.577619" lon="6.956261">
        <time>1970-01-01T00:00:00+00:00</time>
        <ele>2070.0</ele>
      </trkpt>
      <trkpt lat="44.577601" lon="6.956037">
        <time>1970-01-01T00:00:00+00:00</time>
        <ele>2074.0</ele>
      </trkpt>
      <trkpt lat="44.577641" lon="6.955751">
        <time>1970-01-01T00:00:00+00:00</time>
        <ele>2083.0</ele>
      </trkpt>
      <trkpt lat="44.577692" lon="6.955535">
        <time>1970-01-01T00:00:00+00:00</time>
        <ele>2091.0</ele>
      </trkpt>
      <trkpt lat="44.577782" lon="6.955646">
        <time>1970-01-01T00:00:00+00:00</time>
        <ele>2091.0</ele>
      </trkpt>
      <trkpt lat="44.577782" lon="6.955519">
        <time>1970-01-01T00:00:00+00:00</time>
        <ele>2095.0</ele>
      </trkpt>
      <trkpt lat="44.577947" lon="6.955655">
        <time>1970-01-01T00:00:00+00:00</time>
        <ele>2098.0</ele>
      </trkpt>
      <trkpt lat="44.578092" lon="6.955742">
        <time>1970-01-01T00:00:00+00:00</time>
        <ele>2102.0</ele>
      </trkpt>
      <trkpt lat="44.578118" lon="6.955623">
        <time>1970-01-01T00:00:00+00:00</time>
        <ele>2105.0</ele>
      </trkpt>
      <trkpt lat="44.578164" lon="6.955688">
        <time>1970-01-01T00:00:00+00:00</time>
        <ele>2106.0</ele>
      </trkpt>
      <trkpt lat="44.578203" lon="6.955492">
        <time>1970-01-01T00:00:00+00:00</time>
        <ele>2111.0</ele>
      </trkpt>
      <trkpt lat="44.578221" lon="6.955399">
        <time>1970-01-01T00:00:00+00:00</time>
        <ele>2114.0</ele>
      </trkpt>
      <trkpt lat="44.578276" lon="6.95544">
        <time>1970-01-01T00:00:00+00:00</time>
        <ele>2116.0</ele>
      </trkpt>
      <trkpt lat="44.578288" lon="6.955345">
        <time>1970-01-01T00:00:00+00:00</time>
        <ele>2119.0</ele>
      </trkpt>
      <trkpt lat="44.57843" lon="6.955313">
        <time>1970-01-01T00:00:00+00:00</time>
        <ele>2127.0</ele>
      </trkpt>
      <trkpt lat="44.578526" lon="6.955338">
        <time>1970-01-01T00:00:00+00:00</time>
        <ele>2131.0</ele>
      </trkpt>
      <trkpt lat="44.578649" lon="6.955438">
        <time>1970-01-01T00:00:00+00:00</time>
        <ele>2133.0</ele>
      </trkpt>
      <trkpt lat="44.578706" lon="6.95555">
        <time>1970-01-01T00:00:00+00:00</time>
        <ele>2132.0</ele>
      </trkpt>
      <trkpt lat="44.578811" lon="6.955544">
        <time>1970-01-01T00:00:00+00:00</time>
        <ele>2136.0</ele>
      </trkpt>
      <trkpt lat="44.578878" lon="6.955455">
        <time>1970-01-01T00:00:00+00:00</time>
        <ele>2141.0</ele>
      </trkpt>
      <trkpt lat="44.578922" lon="6.955179">
        <time>1970-01-01T00:00:00+00:00</time>
        <ele>2151.0</ele>
      </trkpt>
      <trkpt lat="44.578963" lon="6.95514">
        <time>1970-01-01T00:00:00+00:00</time>
        <ele>2153.0</ele>
      </trkpt>
      <trkpt lat="44.579015" lon="6.955242">
        <time>1970-01-01T00:00:00+00:00</time>
        <ele>2152.0</ele>
      </trkpt>
      <trkpt lat="44.579107" lon="6.95524">
        <time>1970-01-01T00:00:00+00:00</time>
        <ele>2156.0</ele>
      </trkpt>
      <trkpt lat="44.57929" lon="6.955408">
        <time>1970-01-01T00:00:00+00:00</time>
        <ele>2156.0</ele>
      </trkpt>
      <trkpt lat="44.579301" lon="6.955274">
        <time>1970-01-01T00:00:00+00:00</time>
        <ele>2162.0</ele>
      </trkpt>
      <trkpt lat="44.579414" lon="6.955275">
        <time>1970-01-01T00:00:00+00:00</time>
        <ele>2167.0</ele>
      </trkpt>
      <trkpt lat="44.57941" lon="6.955139">
        <time>1970-01-01T00:00:00+00:00</time>
        <ele>2172.0</ele>
      </trkpt>
      <trkpt lat="44.579527" lon="6.955219">
        <time>1970-01-01T00:00:00+00:00</time>
        <ele>2174.0</ele>
      </trkpt>
      <trkpt lat="44.579533" lon="6.955125">
        <time>1970-01-01T00:00:00+00:00</time>
        <ele>2178.0</ele>
      </trkpt>
      <trkpt lat="44.579651" lon="6.955124">
        <time>1970-01-01T00:00:00+00:00</time>
        <ele>2182.0</ele>
      </trkpt>
      <trkpt lat="44.57966" lon="6.955028">
        <time>1970-01-01T00:00:00+00:00</time>
        <ele>2187.0</ele>
      </trkpt>
      <trkpt lat="44.5799" lon="6.955186">
        <time>1970-01-01T00:00:00+00:00</time>
        <ele>2189.0</ele>
      </trkpt>
      <trkpt lat="44.580057" lon="6.955322">
        <time>1970-01-01T00:00:00+00:00</time>
        <ele>2192.0</ele>
      </trkpt>
      <trkpt lat="44.580152" lon="6.955313">
        <time>1970-01-01T00:00:00+00:00</time>
        <ele>2197.0</ele>
      </trkpt>
      <trkpt lat="44.580193" lon="6.955148">
        <time>1970-01-01T00:00:00+00:00</time>
        <ele>2205.0</ele>
      </trkpt>
      <trkpt lat="44.580304" lon="6.955272">
        <time>1970-01-01T00:00:00+00:00</time>
        <ele>2204.0</ele>
      </trkpt>
      <trkpt lat="44.58048" lon="6.955281">
        <time>1970-01-01T00:00:00+00:00</time>
        <ele>2210.0</ele>
      </trkpt>
      <trkpt lat="44.580791" lon="6.955496">
        <time>1970-01-01T00:00:00+00:00</time>
        <ele>2217.0</ele>
      </trkpt>
      <trkpt lat="44.580912" lon="6.955484">
        <time>1970-01-01T00:00:00+00:00</time>
        <ele>2221.0</ele>
      </trkpt>
      <trkpt lat="44.5812" lon="6.955329">
        <time>1970-01-01T00:00:00+00:00</time>
        <ele>2233.0</ele>
      </trkpt>
      <trkpt lat="44.581471" lon="6.955234">
        <time>1970-01-01T00:00:00+00:00</time>
        <ele>2241.0</ele>
      </trkpt>
      <trkpt lat="44.581662" lon="6.955028">
        <time>1970-01-01T00:00:00+00:00</time>
        <ele>2250.0</ele>
      </trkpt>
      <trkpt lat="44.581718" lon="6.955155">
        <time>1970-01-01T00:00:00+00:00</time>
        <ele>2245.0</ele>
      </trkpt>
      <trkpt lat="44.581763" lon="6.955004">
        <time>1970-01-01T00:00:00+00:00</time>
        <ele>2252.0</ele>
      </trkpt>
      <trkpt lat="44.581842" lon="6.954902">
        <time>1970-01-01T00:00:00+00:00</time>
        <ele>2256.0</ele>
      </trkpt>
      <trkpt lat="44.581854" lon="6.954997">
        <time>1970-01-01T00:00:00+00:00</time>
        <ele>2253.0</ele>
      </trkpt>
      <trkpt lat="44.581944" lon="6.954933">
        <time>1970-01-01T00:00:00+00:00</time>
        <ele>2256.0</ele>
      </trkpt>
      <trkpt lat="44.582" lon="6.954807">
        <time>1970-01-01T00:00:00+00:00</time>
        <ele>2261.0</ele>
      </trkpt>
      <trkpt lat="44.582101" lon="6.954696">
        <time>1970-01-01T00:00:00+00:00</time>
        <ele>2264.0</ele>
      </trkpt>
      <trkpt lat="44.582146" lon="6.954562">
        <time>1970-01-01T00:00:00+00:00</time>
        <ele>2268.0</ele>
      </trkpt>
      <trkpt lat="44.582214" lon="6.954578">
        <time>1970-01-01T00:00:00+00:00</time>
        <ele>2269.0</ele>
      </trkpt>
      <trkpt lat="44.582259" lon="6.954499">
        <time>1970-01-01T00:00:00+00:00</time>
        <ele>2272.0</ele>
      </trkpt>
      <trkpt lat="44.58236" lon="6.954593">
        <time>1970-01-01T00:00:00+00:00</time>
        <ele>2272.0</ele>
      </trkpt>
      <trkpt lat="44.582597" lon="6.954435">
        <time>1970-01-01T00:00:00+00:00</time>
        <ele>2284.0</ele>
      </trkpt>
      <trkpt lat="44.582552" lon="6.95434">
        <time>1970-01-01T00:00:00+00:00</time>
        <ele>2285.0</ele>
      </trkpt>
      <trkpt lat="44.582878" lon="6.95434">
        <time>1970-01-01T00:00:00+00:00</time>
        <ele>2296.0</ele>
      </trkpt>
      <trkpt lat="44.582811" lon="6.95423">
        <time>1970-01-01T00:00:00+00:00</time>
        <ele>2296.0</ele>
      </trkpt>
      <trkpt lat="44.582968" lon="6.954214">
        <time>1970-01-01T00:00:00+00:00</time>
        <ele>2301.0</ele>
      </trkpt>
      <trkpt lat="44.583025" lon="6.954166">
        <time>1970-01-01T00:00:00+00:00</time>
        <ele>2303.0</ele>
      </trkpt>
      <trkpt lat="44.583025" lon="6.953993">
        <time>1970-01-01T00:00:00+00:00</time>
        <ele>2305.0</ele>
      </trkpt>
      <trkpt lat="44.583272" lon="6.953914">
        <time>1970-01-01T00:00:00+00:00</time>
        <ele>2314.0</ele>
      </trkpt>
      <trkpt lat="44.58343" lon="6.953779">
        <time>1970-01-01T00:00:00+00:00</time>
        <ele>2322.0</ele>
      </trkpt>
      <trkpt lat="44.583531" lon="6.953629">
        <time>1970-01-01T00:00:00+00:00</time>
        <ele>2328.0</ele>
      </trkpt>
      <trkpt lat="44.583633" lon="6.953234">
        <time>1970-01-01T00:00:00+00:00</time>
        <ele>2338.0</ele>
      </trkpt>
      <trkpt lat="44.583768" lon="6.953249">
        <time>1970-01-01T00:00:00+00:00</time>
        <ele>2342.0</ele>
      </trkpt>
      <trkpt lat="44.583768" lon="6.953123">
        <time>1970-01-01T00:00:00+00:00</time>
        <ele>2343.0</ele>
      </trkpt>
      <trkpt lat="44.583881" lon="6.953044">
        <time>1970-01-01T00:00:00+00:00</time>
        <ele>2347.0</ele>
      </trkpt>
      <trkpt lat="44.583869" lon="6.95287">
        <time>1970-01-01T00:00:00+00:00</time>
        <ele>2349.0</ele>
      </trkpt>
      <trkpt lat="44.584004" lon="6.952791">
        <time>1970-01-01T00:00:00+00:00</time>
        <ele>2355.0</ele>
      </trkpt>
      <trkpt lat="44.584106" lon="6.952601">
        <time>1970-01-01T00:00:00+00:00</time>
        <ele>2360.0</ele>
      </trkpt>
      <trkpt lat="44.584325" lon="6.952499">
        <time>1970-01-01T00:00:00+00:00</time>
        <ele>2365.0</ele>
      </trkpt>
      <trkpt lat="44.584466" lon="6.95238">
        <time>1970-01-01T00:00:00+00:00</time>
        <ele>2368.0</ele>
      </trkpt>
      <trkpt lat="44.584826" lon="6.951969">
        <time>1970-01-01T00:00:00+00:00</time>
        <ele>2378.0</ele>
      </trkpt>
      <trkpt lat="44.585007" lon="6.951558">
        <time>1970-01-01T00:00:00+00:00</time>
        <ele>2382.0</ele>
      </trkpt>
      <trkpt lat="44.585263" lon="6.950807">
        <time>1970-01-01T00:00:00+00:00</time>
        <ele>2393.0</ele>
      </trkpt>
      <trkpt lat="44.58534" lon="6.950876">
        <time>1970-01-01T00:00:00+00:00</time>
        <ele>2390.0</ele>
      </trkpt>
      <trkpt lat="44.585627" lon="6.951002">
        <time>1970-01-01T00:00:00+00:00</time>
        <ele>2386.0</ele>
      </trkpt>
      <trkpt lat="44.585736" lon="6.951086">
        <time>1970-01-01T00:00:00+00:00</time>
        <ele>2386.0</ele>
      </trkpt>
      <trkpt lat="44.585812" lon="6.951099">
        <time>1970-01-01T00:00:00+00:00</time>
        <ele>2387.0</ele>
      </trkpt>
      <trkpt lat="44.586071" lon="6.950894">
        <time>1970-01-01T00:00:00+00:00</time>
        <ele>2396.0</ele>
      </trkpt>
      <trkpt lat="44.586305" lon="6.950784">
        <time>1970-01-01T00:00:00+00:00</time>
        <ele>2402.0</ele>
      </trkpt>
      <trkpt lat="44.58644" lon="6.950693">
        <time>1970-01-01T00:00:00+00:00</time>
        <ele>2408.0</ele>
      </trkpt>
      <trkpt lat="44.586558" lon="6.950744">
        <time>1970-01-01T00:00:00+00:00</time>
        <ele>2409.0</ele>
      </trkpt>
      <trkpt lat="44.586647" lon="6.950693">
        <time>1970-01-01T00:00:00+00:00</time>
        <ele>2413.0</ele>
      </trkpt>
      <trkpt lat="44.587059" lon="6.950727">
        <time>1970-01-01T00:00:00+00:00</time>
        <ele>2417.0</ele>
      </trkpt>
      <trkpt lat="44.587193" lon="6.950675">
        <time>1970-01-01T00:00:00+00:00</time>
        <ele>2417.0</ele>
      </trkpt>
      <trkpt lat="44.587124" lon="6.950584">
        <time>1970-01-01T00:00:00+00:00</time>
        <ele>2421.0</ele>
      </trkpt>
      <trkpt lat="44.587026" lon="6.950172">
        <time>1970-01-01T00:00:00+00:00</time>
        <ele>2434.0</ele>
      </trkpt>
      <trkpt lat="44.586993" lon="6.949909">
        <time>1970-01-01T00:00:00+00:00</time>
        <ele>2440.0</ele>
      </trkpt>
      <trkpt lat="44.586888" lon="6.949538">
        <time>1970-01-01T00:00:00+00:00</time>
        <ele>2453.0</ele>
      </trkpt>
      <trkpt lat="44.586912" lon="6.949366">
        <time>1970-01-01T00:00:00+00:00</time>
        <ele>2459.0</ele>
      </trkpt>
      <trkpt lat="44.586973" lon="6.949155">
        <time>1970-01-01T00:00:00+00:00</time>
        <ele>2464.0</ele>
      </trkpt>
      <trkpt lat="44.586985" lon="6.948897">
        <time>1970-01-01T00:00:00+00:00</time>
        <ele>2473.0</ele>
      </trkpt>
      <trkpt lat="44.586928" lon="6.948629">
        <time>1970-01-01T00:00:00+00:00</time>
        <ele>2480.0</ele>
      </trkpt>
      <trkpt lat="44.586867" lon="6.94864">
        <time>1970-01-01T00:00:00+00:00</time>
        <ele>2480.0</ele>
      </trkpt>
      <trkpt lat="44.586786" lon="6.948434">
        <time>1970-01-01T00:00:00+00:00</time>
        <ele>2483.0</ele>
      </trkpt>
      <trkpt lat="44.58681" lon="6.948303">
        <time>1970-01-01T00:00:00+00:00</time>
        <ele>2488.0</ele>
      </trkpt>
      <trkpt lat="44.5869" lon="6.948131">
        <time>1970-01-01T00:00:00+00:00</time>
        <ele>2495.0</ele>
      </trkpt>
      <trkpt lat="44.58703" lon="6.948017">
        <time>1970-01-01T00:00:00+00:00</time>
        <ele>2499.0</ele>
      </trkpt>
      <trkpt lat="44.587107" lon="6.94788">
        <time>1970-01-01T00:00:00+00:00</time>
        <ele>2504.0</ele>
      </trkpt>
      <trkpt lat="44.587038" lon="6.947903">
        <time>1970-01-01T00:00:00+00:00</time>
        <ele>2503.0</ele>
      </trkpt>
      <trkpt lat="44.586908" lon="6.947863">
        <time>1970-01-01T00:00:00+00:00</time>
        <ele>2505.0</ele>
      </trkpt>
      <trkpt lat="44.587022" lon="6.947691">
        <time>1970-01-01T00:00:00+00:00</time>
        <ele>2510.0</ele>
      </trkpt>
      <trkpt lat="44.587156" lon="6.947577">
        <time>1970-01-01T00:00:00+00:00</time>
        <ele>2513.0</ele>
      </trkpt>
      <trkpt lat="44.587226" lon="6.947462">
        <time>1970-01-01T00:00:00+00:00</time>
        <ele>2518.0</ele>
      </trkpt>
      <trkpt lat="44.5874" lon="6.947577">
        <time>1970-01-01T00:00:00+00:00</time>
        <ele>2508.0</ele>
      </trkpt>
      <trkpt lat="44.587388" lon="6.947222">
        <time>1970-01-01T00:00:00+00:00</time>
        <ele>2522.0</ele>
      </trkpt>
      <trkpt lat="44.587132" lon="6.947091">
        <time>1970-01-01T00:00:00+00:00</time>
        <ele>2541.0</ele>
      </trkpt>
      <trkpt lat="44.586973" lon="6.947165">
        <time>1970-01-01T00:00:00+00:00</time>
        <ele>2545.0</ele>
      </trkpt>
      <trkpt lat="44.586896" lon="6.947102">
        <time>1970-01-01T00:00:00+00:00</time>
        <ele>2553.0</ele>
      </trkpt>
      <trkpt lat="44.586969" lon="6.946925">
        <time>1970-01-01T00:00:00+00:00</time>
        <ele>2555.0</ele>
      </trkpt>
      <trkpt lat="44.586928" lon="6.946782">
        <time>1970-01-01T00:00:00+00:00</time>
        <ele>2561.0</ele>
      </trkpt>
      <trkpt lat="44.586822" lon="6.946868">
        <time>1970-01-01T00:00:00+00:00</time>
        <ele>2565.0</ele>
      </trkpt>
      <trkpt lat="44.586733" lon="6.946851">
        <time>1970-01-01T00:00:00+00:00</time>
        <ele>2570.0</ele>
      </trkpt>
      <trkpt lat="44.586786" lon="6.946736">
        <time>1970-01-01T00:00:00+00:00</time>
        <ele>2570.0</ele>
      </trkpt>
      <trkpt lat="44.586904" lon="6.946593">
        <time>1970-01-01T00:00:00+00:00</time>
        <ele>2568.0</ele>
      </trkpt>
      <trkpt lat="44.587018" lon="6.946559">
        <time>1970-01-01T00:00:00+00:00</time>
        <ele>2562.0</ele>
      </trkpt>
      <trkpt lat="44.587039" lon="6.946464">
        <time>1970-01-01T00:00:00+00:00</time>
        <ele>2564.0</ele>
      </trkpt>
      <trkpt lat="44.586945" lon="6.946267">
        <time>1970-01-01T00:00:00+00:00</time>
        <ele>2576.0</ele>
      </trkpt>
      <trkpt lat="44.586888" lon="6.946033">
        <time>1970-01-01T00:00:00+00:00</time>
        <ele>2586.0</ele>
      </trkpt>
      <trkpt lat="44.586904" lon="6.945839">
        <time>1970-01-01T00:00:00+00:00</time>
        <ele>2590.0</ele>
      </trkpt>
      <trkpt lat="44.586961" lon="6.945701">
        <time>1970-01-01T00:00:00+00:00</time>
        <ele>2591.0</ele>
      </trkpt>
      <trkpt lat="44.587083" lon="6.945576">
        <time>1970-01-01T00:00:00+00:00</time>
        <ele>2586.0</ele>
      </trkpt>
      <trkpt lat="44.58712" lon="6.945364">
        <time>1970-01-01T00:00:00+00:00</time>
        <ele>2588.0</ele>
      </trkpt>
      <trkpt lat="44.587096" lon="6.945178">
        <time>1970-01-01T00:00:00+00:00</time>
        <ele>2592.0</ele>
      </trkpt>
      <trkpt lat="44.587136" lon="6.94509">
        <time>1970-01-01T00:00:00+00:00</time>
        <ele>2592.0</ele>
      </trkpt>
      <trkpt lat="44.587185" lon="6.944998">
        <time>1970-01-01T00:00:00+00:00</time>
        <ele>2592.0</ele>
      </trkpt>
      <trkpt lat="44.587315" lon="6.944827">
        <time>1970-01-01T00:00:00+00:00</time>
        <ele>2591.0</ele>
      </trkpt>
      <trkpt lat="44.587441" lon="6.944712">
        <time>1970-01-01T00:00:00+00:00</time>
        <ele>2592.0</ele>
      </trkpt>
      <trkpt lat="44.587735" lon="6.944604">
        <time>1970-01-01T00:00:00+00:00</time>
        <ele>2590.0</ele>
      </trkpt>
      <trkpt lat="44.587869" lon="6.944518">
        <time>1970-01-01T00:00:00+00:00</time>
        <ele>2592.0</ele>
      </trkpt>
      <trkpt lat="44.587983" lon="6.944364">
        <time>1970-01-01T00:00:00+00:00</time>
        <ele>2598.0</ele>
      </trkpt>
      <trkpt lat="44.588072" lon="6.944284">
        <time>1970-01-01T00:00:00+00:00</time>
        <ele>2600.0</ele>
      </trkpt>
      <trkpt lat="44.588138" lon="6.944289">
        <time>1970-01-01T00:00:00+00:00</time>
        <ele>2599.0</ele>
      </trkpt>
      <trkpt lat="44.58826" lon="6.944158">
        <time>1970-01-01T00:00:00+00:00</time>
        <ele>2603.0</ele>
      </trkpt>
      <trkpt lat="44.588248" lon="6.944061">
        <time>1970-01-01T00:00:00+00:00</time>
        <ele>2607.0</ele>
      </trkpt>
      <trkpt lat="44.588199" lon="6.943912">
        <time>1970-01-01T00:00:00+00:00</time>
        <ele>2611.0</ele>
      </trkpt>
      <trkpt lat="44.588235" lon="6.943786">
        <time>1970-01-01T00:00:00+00:00</time>
        <ele>2614.0</ele>
      </trkpt>
      <trkpt lat="44.588321" lon="6.943729">
        <time>1970-01-01T00:00:00+00:00</time>
        <ele>2616.0</ele>
      </trkpt>
      <trkpt lat="44.588414" lon="6.94362">
        <time>1970-01-01T00:00:00+00:00</time>
        <ele>2619.0</ele>
      </trkpt>
      <trkpt lat="44.588606" lon="6.943283">
        <time>1970-01-01T00:00:00+00:00</time>
        <ele>2633.0</ele>
      </trkpt>
      <trkpt lat="44.588524" lon="6.943174">
        <time>1970-01-01T00:00:00+00:00</time>
        <ele>2635.0</ele>
      </trkpt>
      <trkpt lat="44.58859" lon="6.943043">
        <time>1970-01-01T00:00:00+00:00</time>
        <ele>2640.0</ele>
      </trkpt>
      <trkpt lat="44.588602" lon="6.942894">
        <time>1970-01-01T00:00:00+00:00</time>
        <ele>2648.0</ele>
      </trkpt>
      <trkpt lat="44.588704" lon="6.9429">
        <time>1970-01-01T00:00:00+00:00</time>
        <ele>2649.0</ele>
      </trkpt>
      <trkpt lat="44.588879" lon="6.942951">
        <time>1970-01-01T00:00:00+00:00</time>
        <ele>2647.0</ele>
      </trkpt>
      <trkpt lat="44.588891" lon="6.942843">
        <time>1970-01-01T00:00:00+00:00</time>
        <ele>2653.0</ele>
      </trkpt>
      <trkpt lat="44.588846" lon="6.942648">
        <time>1970-01-01T00:00:00+00:00</time>
        <ele>2662.0</ele>
      </trkpt>
      <trkpt lat="44.588797" lon="6.942077">
        <time>1970-01-01T00:00:00+00:00</time>
        <ele>2682.0</ele>
      </trkpt>
      <trkpt lat="44.58863" lon="6.942082">
        <time>1970-01-01T00:00:00+00:00</time>
        <ele>2686.0</ele>
      </trkpt>
      <trkpt lat="44.588606" lon="6.941831">
        <time>1970-01-01T00:00:00+00:00</time>
        <ele>2694.0</ele>
      </trkpt>
      <trkpt lat="44.58863" lon="6.941688">
        <time>1970-01-01T00:00:00+00:00</time>
        <ele>2698.0</ele>
      </trkpt>
      <trkpt lat="44.588537" lon="6.941642">
        <time>1970-01-01T00:00:00+00:00</time>
        <ele>2700.0</ele>
      </trkpt>
      <trkpt lat="44.588496" lon="6.941551">
        <time>1970-01-01T00:00:00+00:00</time>
        <ele>2703.0</ele>
      </trkpt>
      <trkpt lat="44.58841" lon="6.941448">
        <time>1970-01-01T00:00:00+00:00</time>
        <ele>2705.0</ele>
      </trkpt>
      <trkpt lat="44.588565" lon="6.941019">
        <time>1970-01-01T00:00:00+00:00</time>
        <ele>2719.0</ele>
      </trkpt>
      <trkpt lat="44.588769" lon="6.940727">
        <time>1970-01-01T00:00:00+00:00</time>
        <ele>2724.0</ele>
      </trkpt>
      <trkpt lat="44.58885" lon="6.940585">
        <time>1970-01-01T00:00:00+00:00</time>
        <ele>2725.0</ele>
      </trkpt>
      <trkpt lat="44.58885" lon="6.940516">
        <time>1970-01-01T00:00:00+00:00</time>
        <ele>2727.0</ele>
      </trkpt>
      <trkpt lat="44.588781" lon="6.940476">
        <time>1970-01-01T00:00:00+00:00</time>
        <ele>2730.0</ele>
      </trkpt>
      <trkpt lat="44.588826" lon="6.940373">
        <time>1970-01-01T00:00:00+00:00</time>
        <ele>2732.0</ele>
      </trkpt>
      <trkpt lat="44.588769" lon="6.940316">
        <time>1970-01-01T00:00:00+00:00</time>
        <ele>2735.0</ele>
      </trkpt>
      <trkpt lat="44.588638" lon="6.940282">
        <time>1970-01-01T00:00:00+00:00</time>
        <ele>2739.0</ele>
      </trkpt>
      <trkpt lat="44.588537" lon="6.940339">
        <time>1970-01-01T00:00:00+00:00</time>
        <ele>2738.0</ele>
      </trkpt>
      <trkpt lat="44.588366" lon="6.940299">
        <time>1970-01-01T00:00:00+00:00</time>
        <ele>2740.0</ele>
      </trkpt>
      <trkpt lat="44.588451" lon="6.94011">
        <time>1970-01-01T00:00:00+00:00</time>
        <ele>2745.0</ele>
      </trkpt>
      <trkpt lat="44.588565" lon="6.939967">
        <time>1970-01-01T00:00:00+00:00</time>
        <ele>2748.0</ele>
      </trkpt>
      <trkpt lat="44.58874" lon="6.939887">
        <time>1970-01-01T00:00:00+00:00</time>
        <ele>2746.0</ele>
      </trkpt>
      <trkpt lat="44.588736" lon="6.93955">
        <time>1970-01-01T00:00:00+00:00</time>
        <ele>2756.0</ele>
      </trkpt>
      <trkpt lat="44.588708" lon="6.93939">
        <time>1970-01-01T00:00:00+00:00</time>
        <ele>2763.0</ele>
      </trkpt>
      <trkpt lat="44.588394" lon="6.939287">
        <time>1970-01-01T00:00:00+00:00</time>
        <ele>2770.0</ele>
      </trkpt>
      <trkpt lat="44.588341" lon="6.939069">
        <time>1970-01-01T00:00:00+00:00</time>
        <ele>2777.0</ele>
      </trkpt>
      <trkpt lat="44.588366" lon="6.938949">
        <time>1970-01-01T00:00:00+00:00</time>
        <ele>2781.0</ele>
      </trkpt>
      <trkpt lat="44.588313" lon="6.938858">
        <time>1970-01-01T00:00:00+00:00</time>
        <ele>2784.0</ele>
      </trkpt>
      <trkpt lat="44.588333" lon="6.938738">
        <time>1970-01-01T00:00:00+00:00</time>
        <ele>2788.0</ele>
      </trkpt>
      <trkpt lat="44.588256" lon="6.938589">
        <time>1970-01-01T00:00:00+00:00</time>
        <ele>2793.0</ele>
      </trkpt>
      <trkpt lat="44.588341" lon="6.938418">
        <time>1970-01-01T00:00:00+00:00</time>
        <ele>2798.0</ele>
      </trkpt>
      <trkpt lat="44.588484" lon="6.938252">
        <time>1970-01-01T00:00:00+00:00</time>
        <ele>2801.0</ele>
      </trkpt>
      <trkpt lat="44.588553" lon="6.938018">
        <time>1970-01-01T00:00:00+00:00</time>
        <ele>2808.0</ele>
      </trkpt>
      <trkpt lat="44.588626" lon="6.937875">
        <time>1970-01-01T00:00:00+00:00</time>
        <ele>2813.0</ele>
      </trkpt>
      <trkpt lat="44.588716" lon="6.937606">
        <time>1970-01-01T00:00:00+00:00</time>
        <ele>2821.0</ele>
      </trkpt>
      <trkpt lat="44.588842" lon="6.937314">
        <time>1970-01-01T00:00:00+00:00</time>
        <ele>2827.0</ele>
      </trkpt>
      <trkpt lat="44.58889" lon="6.937116">
        <time>1970-01-01T00:00:00+00:00</time>
        <ele>2833.0</ele>
      </trkpt>
      <trkpt lat="44.58898" lon="6.937011">
        <time>1970-01-01T00:00:00+00:00</time>
        <ele>2835.0</ele>
      </trkpt>
      <trkpt lat="44.589054" lon="6.936885">
        <time>1970-01-01T00:00:00+00:00</time>
        <ele>2839.0</ele>
      </trkpt>
      <trkpt lat="44.589278" lon="6.9368">
        <time>1970-01-01T00:00:00+00:00</time>
        <ele>2842.0</ele>
      </trkpt>
      <trkpt lat="44.589436" lon="6.936703">
        <time>1970-01-01T00:00:00+00:00</time>
        <ele>2846.0</ele>
      </trkpt>
      <trkpt lat="44.589599" lon="6.936725">
        <time>1970-01-01T00:00:00+00:00</time>
        <ele>2846.0</ele>
      </trkpt>
      <trkpt lat="44.589962" lon="6.936863">
        <time>1970-01-01T00:00:00+00:00</time>
        <ele>2847.0</ele>
      </trkpt>
      <trkpt lat="44.590092" lon="6.936805">
        <time>1970-01-01T00:00:00+00:00</time>
        <ele>2851.0</ele>
      </trkpt>
      <trkpt lat="44.590275" lon="6.936691">
        <time>1970-01-01T00:00:00+00:00</time>
        <ele>2858.0</ele>
      </trkpt>
      <trkpt lat="44.590528" lon="6.936645">
        <time>1970-01-01T00:00:00+00:00</time>
        <ele>2864.0</ele>
      </trkpt>
      <trkpt lat="44.590788" lon="6.936628">
        <time>1970-01-01T00:00:00+00:00</time>
        <ele>2871.0</ele>
      </trkpt>
      <trkpt lat="44.590943" lon="6.936794">
        <time>1970-01-01T00:00:00+00:00</time>
        <ele>2871.0</ele>
      </trkpt>
      <trkpt lat="44.591163" lon="6.936914">
        <time>1970-01-01T00:00:00+00:00</time>
        <ele>2874.0</ele>
      </trkpt>
      <trkpt lat="44.591399" lon="6.936966">
        <time>1970-01-01T00:00:00+00:00</time>
        <ele>2876.0</ele>
      </trkpt>
      <trkpt lat="44.591672" lon="6.936834">
        <time>1970-01-01T00:00:00+00:00</time>
        <ele>2880.0</ele>
      </trkpt>
      <trkpt lat="44.592054" lon="6.93684">
        <time>1970-01-01T00:00:00+00:00</time>
        <ele>2886.0</ele>
      </trkpt>
      <trkpt lat="44.592645" lon="6.936777">
        <time>1970-01-01T00:00:00+00:00</time>
        <ele>2893.0</ele>
      </trkpt>
      <trkpt lat="44.592865" lon="6.936697">
        <time>1970-01-01T00:00:00+00:00</time>
        <ele>2894.0</ele>
      </trkpt>
      <trkpt lat="44.593158" lon="6.936691">
        <time>1970-01-01T00:00:00+00:00</time>
        <ele>2896.0</ele>
      </trkpt>
      <trkpt lat="44.593459" lon="6.936474">
        <time>1970-01-01T00:00:00+00:00</time>
        <ele>2904.0</ele>
      </trkpt>
      <trkpt lat="44.593748" lon="6.936462">
        <time>1970-01-01T00:00:00+00:00</time>
        <ele>2909.0</ele>
      </trkpt>
      <trkpt lat="44.594009" lon="6.936354">
        <time>1970-01-01T00:00:00+00:00</time>
        <ele>2916.0</ele>
      </trkpt>
      <trkpt lat="44.594298" lon="6.936182">
        <time>1970-01-01T00:00:00+00:00</time>
        <ele>2924.0</ele>
      </trkpt>
      <trkpt lat="44.594477" lon="6.936068">
        <time>1970-01-01T00:00:00+00:00</time>
        <ele>2931.0</ele>
      </trkpt>
      <trkpt lat="44.594644" lon="6.935874">
        <time>1970-01-01T00:00:00+00:00</time>
        <ele>2940.0</ele>
      </trkpt>
      <trkpt lat="44.594892" lon="6.935742">
        <time>1970-01-01T00:00:00+00:00</time>
        <ele>2948.0</ele>
      </trkpt>
      <trkpt lat="44.595136" lon="6.935571">
        <time>1970-01-01T00:00:00+00:00</time>
        <ele>2957.0</ele>
      </trkpt>
      <trkpt lat="44.595319" lon="6.935388">
        <time>1970-01-01T00:00:00+00:00</time>
        <ele>2959.0</ele>
      </trkpt>
      <trkpt lat="44.595564" lon="6.93521">
        <time>1970-01-01T00:00:00+00:00</time>
        <ele>2966.0</ele>
      </trkpt>
      <trkpt lat="44.595869" lon="6.935085">
        <time>1970-01-01T00:00:00+00:00</time>
        <ele>2980.0</ele>
      </trkpt>
      <trkpt lat="44.596113" lon="6.93501">
        <time>1970-01-01T00:00:00+00:00</time>
        <ele>2991.0</ele>
      </trkpt>
      <trkpt lat="44.596292" lon="6.935005">
        <time>1970-01-01T00:00:00+00:00</time>
        <ele>2998.0</ele>
      </trkpt>
      <trkpt lat="44.596341" lon="6.93477">
        <time>1970-01-01T00:00:00+00:00</time>
        <ele>3006.0</ele>
      </trkpt>
      <trkpt lat="44.596525" lon="6.934736">
        <time>1970-01-01T00:00:00+00:00</time>
        <ele>3017.0</ele>
      </trkpt>
      <trkpt lat="44.596667" lon="6.934747">
        <time>1970-01-01T00:00:00+00:00</time>
        <ele>3025.0</ele>
      </trkpt>
      <trkpt lat="44.596919" lon="6.934913">
        <time>1970-01-01T00:00:00+00:00</time>
        <ele>3035.0</ele>
      </trkpt>
      <trkpt lat="44.597196" lon="6.935056">
        <time>1970-01-01T00:00:00+00:00</time>
        <ele>3051.0</ele>
      </trkpt>
      <trkpt lat="44.597742" lon="6.935222">
        <time>1970-01-01T00:00:00+00:00</time>
        <ele>3084.0</ele>
      </trkpt>
      <trkpt lat="44.597791" lon="6.935096">
        <time>1970-01-01T00:00:00+00:00</time>
        <ele>3087.0</ele>
      </trkpt>
      <trkpt lat="44.597986" lon="6.935468">
        <time>1970-01-01T00:00:00+00:00</time>
        <ele>3098.0</ele>
      </trkpt>
      <trkpt lat="44.598137" lon="6.935525">
        <time>1970-01-01T00:00:00+00:00</time>
        <ele>3103.0</ele>
      </trkpt>
      <trkpt lat="44.598218" lon="6.935702">
        <time>1970-01-01T00:00:00+00:00</time>
        <ele>3107.0</ele>
      </trkpt>
      <trkpt lat="44.598446" lon="6.935919">
        <time>1970-01-01T00:00:00+00:00</time>
        <ele>3118.0</ele>
      </trkpt>
      <trkpt lat="44.598597" lon="6.936239">
        <time>1970-01-01T00:00:00+00:00</time>
        <ele>3126.0</ele>
      </trkpt>
      <trkpt lat="44.598735" lon="6.936457">
        <time>1970-01-01T00:00:00+00:00</time>
        <ele>3129.0</ele>
      </trkpt>
      <trkpt lat="44.598902" lon="6.936514">
        <time>1970-01-01T00:00:00+00:00</time>
        <ele>3134.0</ele>
      </trkpt>
      <trkpt lat="44.599081" lon="6.93672">
        <time>1970-01-01T00:00:00+00:00</time>
        <ele>3143.0</ele>
      </trkpt>
      <trkpt lat="44.599252" lon="6.936823">
        <time>1970-01-01T00:00:00+00:00</time>
        <ele>3149.0</ele>
      </trkpt>
      <trkpt lat="44.599443" lon="6.937162">
        <time>1970-01-01T00:00:00+00:00</time>
        <ele>3161.0</ele>
      </trkpt>
      <trkpt lat="44.599436" lon="6.937305">
        <time>1970-01-01T00:00:00+00:00</time>
        <ele>3163.0</ele>
      </trkpt>
      <trkpt lat="44.599529" lon="6.937452">
        <time>1970-01-01T00:00:00+00:00</time>
        <ele>3170.0</ele>
      </trkpt>
      <trkpt lat="44.599736" lon="6.937469">
        <time>1970-01-01T00:00:00+00:00</time>
        <ele>3178.0</ele>
      </trkpt>
      <trkpt lat="44.600009" lon="6.93755">
        <time>1970-01-01T00:00:00+00:00</time>
        <ele>3193.0</ele>
      </trkpt>
      <trkpt lat="44.600081" lon="6.937453">
        <time>1970-01-01T00:00:00+00:00</time>
        <ele>3197.0</ele>
      </trkpt>
      <trkpt lat="44.600252" lon="6.937303">
        <time>1970-01-01T00:00:00+00:00</time>
        <ele>3199.0</ele>
      </trkpt>
      <trkpt lat="44.600323" lon="6.937274">
        <time>1970-01-01T00:00:00+00:00</time>
        <ele>3199.0</ele>
      </trkpt>
      <trkpt lat="44.600415" lon="6.937189">
        <time>1970-01-01T00:00:00+00:00</time>
        <ele>3200.0</ele>
      </trkpt>
      <trkpt lat="44.600415" lon="6.937189">
        <time>1970-01-01T00:00:00+00:00</time>
        <ele>3200.0</ele>
      </trkpt>
      <trkpt lat="44.600323" lon="6.937274">
        <time>1970-01-01T00:00:00+00:00</time>
        <ele>3199.0</ele>
      </trkpt>
      <trkpt lat="44.600252" lon="6.937303">
        <time>1970-01-01T00:00:00+00:00</time>
        <ele>3199.0</ele>
      </trkpt>
      <trkpt lat="44.600081" lon="6.937453">
        <time>1970-01-01T00:00:00+00:00</time>
        <ele>3197.0</ele>
      </trkpt>
      <trkpt lat="44.600009" lon="6.93755">
        <time>1970-01-01T00:00:00+00:00</time>
        <ele>3193.0</ele>
      </trkpt>
      <trkpt lat="44.599736" lon="6.937469">
        <time>1970-01-01T00:00:00+00:00</time>
        <ele>3178.0</ele>
      </trkpt>
      <trkpt lat="44.599529" lon="6.937452">
        <time>1970-01-01T00:00:00+00:00</time>
        <ele>3170.0</ele>
      </trkpt>
      <trkpt lat="44.599436" lon="6.937305">
        <time>1970-01-01T00:00:00+00:00</time>
        <ele>3163.0</ele>
      </trkpt>
      <trkpt lat="44.599443" lon="6.937162">
        <time>1970-01-01T00:00:00+00:00</time>
        <ele>3161.0</ele>
      </trkpt>
      <trkpt lat="44.599252" lon="6.936823">
        <time>1970-01-01T00:00:00+00:00</time>
        <ele>3149.0</ele>
      </trkpt>
      <trkpt lat="44.599081" lon="6.93672">
        <time>1970-01-01T00:00:00+00:00</time>
        <ele>3143.0</ele>
      </trkpt>
      <trkpt lat="44.598902" lon="6.936514">
        <time>1970-01-01T00:00:00+00:00</time>
        <ele>3134.0</ele>
      </trkpt>
      <trkpt lat="44.598735" lon="6.936457">
        <time>1970-01-01T00:00:00+00:00</time>
        <ele>3129.0</ele>
      </trkpt>
      <trkpt lat="44.598597" lon="6.936239">
        <time>1970-01-01T00:00:00+00:00</time>
        <ele>3126.0</ele>
      </trkpt>
      <trkpt lat="44.598446" lon="6.935919">
        <time>1970-01-01T00:00:00+00:00</time>
        <ele>3118.0</ele>
      </trkpt>
      <trkpt lat="44.598218" lon="6.935702">
        <time>1970-01-01T00:00:00+00:00</time>
        <ele>3107.0</ele>
      </trkpt>
      <trkpt lat="44.598137" lon="6.935525">
        <time>1970-01-01T00:00:00+00:00</time>
        <ele>3103.0</ele>
      </trkpt>
      <trkpt lat="44.597986" lon="6.935468">
        <time>1970-01-01T00:00:00+00:00</time>
        <ele>3098.0</ele>
      </trkpt>
      <trkpt lat="44.597791" lon="6.935096">
        <time>1970-01-01T00:00:00+00:00</time>
        <ele>3087.0</ele>
      </trkpt>
      <trkpt lat="44.597742" lon="6.935222">
        <time>1970-01-01T00:00:00+00:00</time>
        <ele>3084.0</ele>
      </trkpt>
      <trkpt lat="44.597196" lon="6.935056">
        <time>1970-01-01T00:00:00+00:00</time>
        <ele>3051.0</ele>
      </trkpt>
      <trkpt lat="44.596919" lon="6.934913">
        <time>1970-01-01T00:00:00+00:00</time>
        <ele>3035.0</ele>
      </trkpt>
      <trkpt lat="44.596667" lon="6.934747">
        <time>1970-01-01T00:00:00+00:00</time>
        <ele>3025.0</ele>
      </trkpt>
      <trkpt lat="44.596525" lon="6.934736">
        <time>1970-01-01T00:00:00+00:00</time>
        <ele>3017.0</ele>
      </trkpt>
      <trkpt lat="44.596341" lon="6.93477">
        <time>1970-01-01T00:00:00+00:00</time>
        <ele>3006.0</ele>
      </trkpt>
      <trkpt lat="44.596292" lon="6.935005">
        <time>1970-01-01T00:00:00+00:00</time>
        <ele>2998.0</ele>
      </trkpt>
      <trkpt lat="44.596113" lon="6.93501">
        <time>1970-01-01T00:00:00+00:00</time>
        <ele>2991.0</ele>
      </trkpt>
      <trkpt lat="44.595869" lon="6.935085">
        <time>1970-01-01T00:00:00+00:00</time>
        <ele>2980.0</ele>
      </trkpt>
      <trkpt lat="44.595564" lon="6.93521">
        <time>1970-01-01T00:00:00+00:00</time>
        <ele>2966.0</ele>
      </trkpt>
      <trkpt lat="44.595319" lon="6.935388">
        <time>1970-01-01T00:00:00+00:00</time>
        <ele>2959.0</ele>
      </trkpt>
      <trkpt lat="44.595136" lon="6.935571">
        <time>1970-01-01T00:00:00+00:00</time>
        <ele>2957.0</ele>
      </trkpt>
      <trkpt lat="44.594892" lon="6.935742">
        <time>1970-01-01T00:00:00+00:00</time>
        <ele>2948.0</ele>
      </trkpt>
      <trkpt lat="44.594644" lon="6.935874">
        <time>1970-01-01T00:00:00+00:00</time>
        <ele>2940.0</ele>
      </trkpt>
      <trkpt lat="44.594477" lon="6.936068">
        <time>1970-01-01T00:00:00+00:00</time>
        <ele>2931.0</ele>
      </trkpt>
      <trkpt lat="44.594298" lon="6.936182">
        <time>1970-01-01T00:00:00+00:00</time>
        <ele>2924.0</ele>
      </trkpt>
      <trkpt lat="44.594009" lon="6.936354">
        <time>1970-01-01T00:00:00+00:00</time>
        <ele>2916.0</ele>
      </trkpt>
      <trkpt lat="44.593748" lon="6.936462">
        <time>1970-01-01T00:00:00+00:00</time>
        <ele>2909.0</ele>
      </trkpt>
      <trkpt lat="44.593459" lon="6.936474">
        <time>1970-01-01T00:00:00+00:00</time>
        <ele>2904.0</ele>
      </trkpt>
      <trkpt lat="44.593158" lon="6.936691">
        <time>1970-01-01T00:00:00+00:00</time>
        <ele>2896.0</ele>
      </trkpt>
      <trkpt lat="44.592865" lon="6.936697">
        <time>1970-01-01T00:00:00+00:00</time>
        <ele>2894.0</ele>
      </trkpt>
      <trkpt lat="44.592645" lon="6.936777">
        <time>1970-01-01T00:00:00+00:00</time>
        <ele>2893.0</ele>
      </trkpt>
      <trkpt lat="44.592054" lon="6.93684">
        <time>1970-01-01T00:00:00+00:00</time>
        <ele>2886.0</ele>
      </trkpt>
      <trkpt lat="44.591672" lon="6.936834">
        <time>1970-01-01T00:00:00+00:00</time>
        <ele>2880.0</ele>
      </trkpt>
      <trkpt lat="44.591399" lon="6.936966">
        <time>1970-01-01T00:00:00+00:00</time>
        <ele>2876.0</ele>
      </trkpt>
      <trkpt lat="44.591163" lon="6.936914">
        <time>1970-01-01T00:00:00+00:00</time>
        <ele>2874.0</ele>
      </trkpt>
      <trkpt lat="44.590943" lon="6.936794">
        <time>1970-01-01T00:00:00+00:00</time>
        <ele>2871.0</ele>
      </trkpt>
      <trkpt lat="44.590788" lon="6.936628">
        <time>1970-01-01T00:00:00+00:00</time>
        <ele>2871.0</ele>
      </trkpt>
      <trkpt lat="44.590528" lon="6.936645">
        <time>1970-01-01T00:00:00+00:00</time>
        <ele>2864.0</ele>
      </trkpt>
      <trkpt lat="44.590275" lon="6.936691">
        <time>1970-01-01T00:00:00+00:00</time>
        <ele>2858.0</ele>
      </trkpt>
      <trkpt lat="44.590092" lon="6.936805">
        <time>1970-01-01T00:00:00+00:00</time>
        <ele>2851.0</ele>
      </trkpt>
      <trkpt lat="44.589962" lon="6.936863">
        <time>1970-01-01T00:00:00+00:00</time>
        <ele>2847.0</ele>
      </trkpt>
      <trkpt lat="44.589599" lon="6.936725">
        <time>1970-01-01T00:00:00+00:00</time>
        <ele>2846.0</ele>
      </trkpt>
      <trkpt lat="44.589436" lon="6.936703">
        <time>1970-01-01T00:00:00+00:00</time>
        <ele>2846.0</ele>
      </trkpt>
      <trkpt lat="44.589278" lon="6.9368">
        <time>1970-01-01T00:00:00+00:00</time>
        <ele>2842.0</ele>
      </trkpt>
      <trkpt lat="44.589054" lon="6.936885">
        <time>1970-01-01T00:00:00+00:00</time>
        <ele>2839.0</ele>
      </trkpt>
      <trkpt lat="44.58898" lon="6.937011">
        <time>1970-01-01T00:00:00+00:00</time>
        <ele>2835.0</ele>
      </trkpt>
      <trkpt lat="44.58889" lon="6.937116">
        <time>1970-01-01T00:00:00+00:00</time>
        <ele>2833.0</ele>
      </trkpt>
      <trkpt lat="44.588842" lon="6.937314">
        <time>1970-01-01T00:00:00+00:00</time>
        <ele>2827.0</ele>
      </trkpt>
      <trkpt lat="44.588716" lon="6.937606">
        <time>1970-01-01T00:00:00+00:00</time>
        <ele>2821.0</ele>
      </trkpt>
      <trkpt lat="44.588626" lon="6.937875">
        <time>1970-01-01T00:00:00+00:00</time>
        <ele>2813.0</ele>
      </trkpt>
      <trkpt lat="44.588553" lon="6.938018">
        <time>1970-01-01T00:00:00+00:00</time>
        <ele>2808.0</ele>
      </trkpt>
      <trkpt lat="44.588484" lon="6.938252">
        <time>1970-01-01T00:00:00+00:00</time>
        <ele>2801.0</ele>
      </trkpt>
      <trkpt lat="44.588341" lon="6.938418">
        <time>1970-01-01T00:00:00+00:00</time>
        <ele>2798.0</ele>
      </trkpt>
      <trkpt lat="44.588256" lon="6.938589">
        <time>1970-01-01T00:00:00+00:00</time>
        <ele>2793.0</ele>
      </trkpt>
      <trkpt lat="44.588333" lon="6.938738">
        <time>1970-01-01T00:00:00+00:00</time>
        <ele>2788.0</ele>
      </trkpt>
      <trkpt lat="44.588313" lon="6.938858">
        <time>1970-01-01T00:00:00+00:00</time>
        <ele>2784.0</ele>
      </trkpt>
      <trkpt lat="44.588366" lon="6.938949">
        <time>1970-01-01T00:00:00+00:00</time>
        <ele>2781.0</ele>
      </trkpt>
      <trkpt lat="44.588341" lon="6.939069">
        <time>1970-01-01T00:00:00+00:00</time>
        <ele>2777.0</ele>
      </trkpt>
      <trkpt lat="44.588394" lon="6.939287">
        <time>1970-01-01T00:00:00+00:00</time>
        <ele>2770.0</ele>
      </trkpt>
      <trkpt lat="44.588708" lon="6.93939">
        <time>1970-01-01T00:00:00+00:00</time>
        <ele>2763.0</ele>
      </trkpt>
      <trkpt lat="44.588736" lon="6.93955">
        <time>1970-01-01T00:00:00+00:00</time>
        <ele>2756.0</ele>
      </trkpt>
      <trkpt lat="44.58874" lon="6.939887">
        <time>1970-01-01T00:00:00+00:00</time>
        <ele>2746.0</ele>
      </trkpt>
      <trkpt lat="44.588565" lon="6.939967">
        <time>1970-01-01T00:00:00+00:00</time>
        <ele>2748.0</ele>
      </trkpt>
      <trkpt lat="44.588451" lon="6.94011">
        <time>1970-01-01T00:00:00+00:00</time>
        <ele>2745.0</ele>
      </trkpt>
      <trkpt lat="44.588366" lon="6.940299">
        <time>1970-01-01T00:00:00+00:00</time>
        <ele>2740.0</ele>
      </trkpt>
      <trkpt lat="44.588537" lon="6.940339">
        <time>1970-01-01T00:00:00+00:00</time>
        <ele>2738.0</ele>
      </trkpt>
      <trkpt lat="44.588638" lon="6.940282">
        <time>1970-01-01T00:00:00+00:00</time>
        <ele>2739.0</ele>
      </trkpt>
      <trkpt lat="44.588769" lon="6.940316">
        <time>1970-01-01T00:00:00+00:00</time>
        <ele>2735.0</ele>
      </trkpt>
      <trkpt lat="44.588826" lon="6.940373">
        <time>1970-01-01T00:00:00+00:00</time>
        <ele>2732.0</ele>
      </trkpt>
      <trkpt lat="44.588781" lon="6.940476">
        <time>1970-01-01T00:00:00+00:00</time>
        <ele>2730.0</ele>
      </trkpt>
      <trkpt lat="44.58885" lon="6.940516">
        <time>1970-01-01T00:00:00+00:00</time>
        <ele>2727.0</ele>
      </trkpt>
      <trkpt lat="44.58885" lon="6.940585">
        <time>1970-01-01T00:00:00+00:00</time>
        <ele>2725.0</ele>
      </trkpt>
      <trkpt lat="44.588769" lon="6.940727">
        <time>1970-01-01T00:00:00+00:00</time>
        <ele>2724.0</ele>
      </trkpt>
      <trkpt lat="44.588565" lon="6.941019">
        <time>1970-01-01T00:00:00+00:00</time>
        <ele>2719.0</ele>
      </trkpt>
      <trkpt lat="44.58841" lon="6.941448">
        <time>1970-01-01T00:00:00+00:00</time>
        <ele>2705.0</ele>
      </trkpt>
      <trkpt lat="44.588496" lon="6.941551">
        <time>1970-01-01T00:00:00+00:00</time>
        <ele>2703.0</ele>
      </trkpt>
      <trkpt lat="44.588537" lon="6.941642">
        <time>1970-01-01T00:00:00+00:00</time>
        <ele>2700.0</ele>
      </trkpt>
      <trkpt lat="44.58863" lon="6.941688">
        <time>1970-01-01T00:00:00+00:00</time>
        <ele>2698.0</ele>
      </trkpt>
      <trkpt lat="44.588606" lon="6.941831">
        <time>1970-01-01T00:00:00+00:00</time>
        <ele>2694.0</ele>
      </trkpt>
      <trkpt lat="44.58863" lon="6.942082">
        <time>1970-01-01T00:00:00+00:00</time>
        <ele>2686.0</ele>
      </trkpt>
      <trkpt lat="44.588797" lon="6.942077">
        <time>1970-01-01T00:00:00+00:00</time>
        <ele>2682.0</ele>
      </trkpt>
      <trkpt lat="44.588846" lon="6.942648">
        <time>1970-01-01T00:00:00+00:00</time>
        <ele>2662.0</ele>
      </trkpt>
      <trkpt lat="44.588891" lon="6.942843">
        <time>1970-01-01T00:00:00+00:00</time>
        <ele>2653.0</ele>
      </trkpt>
      <trkpt lat="44.588879" lon="6.942951">
        <time>1970-01-01T00:00:00+00:00</time>
        <ele>2647.0</ele>
      </trkpt>
      <trkpt lat="44.588704" lon="6.9429">
        <time>1970-01-01T00:00:00+00:00</time>
        <ele>2649.0</ele>
      </trkpt>
      <trkpt lat="44.588602" lon="6.942894">
        <time>1970-01-01T00:00:00+00:00</time>
        <ele>2648.0</ele>
      </trkpt>
      <trkpt lat="44.58859" lon="6.943043">
        <time>1970-01-01T00:00:00+00:00</time>
        <ele>2640.0</ele>
      </trkpt>
      <trkpt lat="44.588524" lon="6.943174">
        <time>1970-01-01T00:00:00+00:00</time>
        <ele>2635.0</ele>
      </trkpt>
      <trkpt lat="44.588606" lon="6.943283">
        <time>1970-01-01T00:00:00+00:00</time>
        <ele>2633.0</ele>
      </trkpt>
      <trkpt lat="44.588414" lon="6.94362">
        <time>1970-01-01T00:00:00+00:00</time>
        <ele>2619.0</ele>
      </trkpt>
      <trkpt lat="44.588321" lon="6.943729">
        <time>1970-01-01T00:00:00+00:00</time>
        <ele>2616.0</ele>
      </trkpt>
      <trkpt lat="44.588235" lon="6.943786">
        <time>1970-01-01T00:00:00+00:00</time>
        <ele>2614.0</ele>
      </trkpt>
      <trkpt lat="44.588199" lon="6.943912">
        <time>1970-01-01T00:00:00+00:00</time>
        <ele>2611.0</ele>
      </trkpt>
      <trkpt lat="44.588248" lon="6.944061">
        <time>1970-01-01T00:00:00+00:00</time>
        <ele>2607.0</ele>
      </trkpt>
      <trkpt lat="44.58826" lon="6.944158">
        <time>1970-01-01T00:00:00+00:00</time>
        <ele>2603.0</ele>
      </trkpt>
      <trkpt lat="44.588138" lon="6.944289">
        <time>1970-01-01T00:00:00+00:00</time>
        <ele>2599.0</ele>
      </trkpt>
      <trkpt lat="44.588072" lon="6.944284">
        <time>1970-01-01T00:00:00+00:00</time>
        <ele>2600.0</ele>
      </trkpt>
      <trkpt lat="44.587983" lon="6.944364">
        <time>1970-01-01T00:00:00+00:00</time>
        <ele>2598.0</ele>
      </trkpt>
      <trkpt lat="44.587869" lon="6.944518">
        <time>1970-01-01T00:00:00+00:00</time>
        <ele>2592.0</ele>
      </trkpt>
      <trkpt lat="44.587735" lon="6.944604">
        <time>1970-01-01T00:00:00+00:00</time>
        <ele>2590.0</ele>
      </trkpt>
      <trkpt lat="44.587441" lon="6.944712">
        <time>1970-01-01T00:00:00+00:00</time>
        <ele>2592.0</ele>
      </trkpt>
      <trkpt lat="44.587315" lon="6.944827">
        <time>1970-01-01T00:00:00+00:00</time>
        <ele>2591.0</ele>
      </trkpt>
      <trkpt lat="44.587185" lon="6.944998">
        <time>1970-01-01T00:00:00+00:00</time>
        <ele>2592.0</ele>
      </trkpt>
      <trkpt lat="44.587136" lon="6.94509">
        <time>1970-01-01T00:00:00+00:00</time>
        <ele>2592.0</ele>
      </trkpt>
      <trkpt lat="44.587096" lon="6.945178">
        <time>1970-01-01T00:00:00+00:00</time>
        <ele>2592.0</ele>
      </trkpt>
      <trkpt lat="44.58712" lon="6.945364">
        <time>1970-01-01T00:00:00+00:00</time>
        <ele>2588.0</ele>
      </trkpt>
      <trkpt lat="44.587083" lon="6.945576">
        <time>1970-01-01T00:00:00+00:00</time>
        <ele>2586.0</ele>
      </trkpt>
      <trkpt lat="44.586961" lon="6.945701">
        <time>1970-01-01T00:00:00+00:00</time>
        <ele>2591.0</ele>
      </trkpt>
      <trkpt lat="44.586904" lon="6.945839">
        <time>1970-01-01T00:00:00+00:00</time>
        <ele>2590.0</ele>
      </trkpt>
      <trkpt lat="44.586888" lon="6.946033">
        <time>1970-01-01T00:00:00+00:00</time>
        <ele>2586.0</ele>
      </trkpt>
      <trkpt lat="44.586945" lon="6.946267">
        <time>1970-01-01T00:00:00+00:00</time>
        <ele>2576.0</ele>
      </trkpt>
      <trkpt lat="44.587039" lon="6.946464">
        <time>1970-01-01T00:00:00+00:00</time>
        <ele>2564.0</ele>
      </trkpt>
      <trkpt lat="44.587018" lon="6.946559">
        <time>1970-01-01T00:00:00+00:00</time>
        <ele>2562.0</ele>
      </trkpt>
      <trkpt lat="44.586904" lon="6.946593">
        <time>1970-01-01T00:00:00+00:00</time>
        <ele>2568.0</ele>
      </trkpt>
      <trkpt lat="44.586786" lon="6.946736">
        <time>1970-01-01T00:00:00+00:00</time>
        <ele>2570.0</ele>
      </trkpt>
      <trkpt lat="44.586733" lon="6.946851">
        <time>1970-01-01T00:00:00+00:00</time>
        <ele>2570.0</ele>
      </trkpt>
      <trkpt lat="44.586822" lon="6.946868">
        <time>1970-01-01T00:00:00+00:00</time>
        <ele>2565.0</ele>
      </trkpt>
      <trkpt lat="44.586928" lon="6.946782">
        <time>1970-01-01T00:00:00+00:00</time>
        <ele>2561.0</ele>
      </trkpt>
      <trkpt lat="44.586969" lon="6.946925">
        <time>1970-01-01T00:00:00+00:00</time>
        <ele>2555.0</ele>
      </trkpt>
      <trkpt lat="44.586896" lon="6.947102">
        <time>1970-01-01T00:00:00+00:00</time>
        <ele>2553.0</ele>
      </trkpt>
      <trkpt lat="44.586973" lon="6.947165">
        <time>1970-01-01T00:00:00+00:00</time>
        <ele>2545.0</ele>
      </trkpt>
      <trkpt lat="44.587132" lon="6.947091">
        <time>1970-01-01T00:00:00+00:00</time>
        <ele>2541.0</ele>
      </trkpt>
      <trkpt lat="44.587388" lon="6.947222">
        <time>1970-01-01T00:00:00+00:00</time>
        <ele>2522.0</ele>
      </trkpt>
      <trkpt lat="44.5874" lon="6.947577">
        <time>1970-01-01T00:00:00+00:00</time>
        <ele>2508.0</ele>
      </trkpt>
      <trkpt lat="44.587226" lon="6.947462">
        <time>1970-01-01T00:00:00+00:00</time>
        <ele>2518.0</ele>
      </trkpt>
      <trkpt lat="44.587156" lon="6.947577">
        <time>1970-01-01T00:00:00+00:00</time>
        <ele>2513.0</ele>
      </trkpt>
      <trkpt lat="44.587022" lon="6.947691">
        <time>1970-01-01T00:00:00+00:00</time>
        <ele>2510.0</ele>
      </trkpt>
      <trkpt lat="44.586908" lon="6.947863">
        <time>1970-01-01T00:00:00+00:00</time>
        <ele>2505.0</ele>
      </trkpt>
      <trkpt lat="44.587038" lon="6.947903">
        <time>1970-01-01T00:00:00+00:00</time>
        <ele>2503.0</ele>
      </trkpt>
      <trkpt lat="44.587107" lon="6.94788">
        <time>1970-01-01T00:00:00+00:00</time>
        <ele>2504.0</ele>
      </trkpt>
      <trkpt lat="44.58703" lon="6.948017">
        <time>1970-01-01T00:00:00+00:00</time>
        <ele>2499.0</ele>
      </trkpt>
      <trkpt lat="44.5869" lon="6.948131">
        <time>1970-01-01T00:00:00+00:00</time>
        <ele>2495.0</ele>
      </trkpt>
      <trkpt lat="44.58681" lon="6.948303">
        <time>1970-01-01T00:00:00+00:00</time>
        <ele>2488.0</ele>
      </trkpt>
      <trkpt lat="44.586786" lon="6.948434">
        <time>1970-01-01T00:00:00+00:00</time>
        <ele>2483.0</ele>
      </trkpt>
      <trkpt lat="44.586867" lon="6.94864">
        <time>1970-01-01T00:00:00+00:00</time>
        <ele>2480.0</ele>
      </trkpt>
      <trkpt lat="44.586928" lon="6.948629">
        <time>1970-01-01T00:00:00+00:00</time>
        <ele>2480.0</ele>
      </trkpt>
      <trkpt lat="44.586985" lon="6.948897">
        <time>1970-01-01T00:00:00+00:00</time>
        <ele>2473.0</ele>
      </trkpt>
      <trkpt lat="44.586973" lon="6.949155">
        <time>1970-01-01T00:00:00+00:00</time>
        <ele>2464.0</ele>
      </trkpt>
      <trkpt lat="44.586912" lon="6.949366">
        <time>1970-01-01T00:00:00+00:00</time>
        <ele>2459.0</ele>
      </trkpt>
      <trkpt lat="44.586888" lon="6.949538">
        <time>1970-01-01T00:00:00+00:00</time>
        <ele>2453.0</ele>
      </trkpt>
      <trkpt lat="44.586993" lon="6.949909">
        <time>1970-01-01T00:00:00+00:00</time>
        <ele>2440.0</ele>
      </trkpt>
      <trkpt lat="44.587026" lon="6.950172">
        <time>1970-01-01T00:00:00+00:00</time>
        <ele>2434.0</ele>
      </trkpt>
      <trkpt lat="44.587124" lon="6.950584">
        <time>1970-01-01T00:00:00+00:00</time>
        <ele>2421.0</ele>
      </trkpt>
      <trkpt lat="44.587193" lon="6.950675">
        <time>1970-01-01T00:00:00+00:00</time>
        <ele>2417.0</ele>
      </trkpt>
      <trkpt lat="44.587059" lon="6.950727">
        <time>1970-01-01T00:00:00+00:00</time>
        <ele>2417.0</ele>
      </trkpt>
      <trkpt lat="44.586647" lon="6.950693">
        <time>1970-01-01T00:00:00+00:00</time>
        <ele>2413.0</ele>
      </trkpt>
      <trkpt lat="44.586558" lon="6.950744">
        <time>1970-01-01T00:00:00+00:00</time>
        <ele>2409.0</ele>
      </trkpt>
      <trkpt lat="44.58644" lon="6.950693">
        <time>1970-01-01T00:00:00+00:00</time>
        <ele>2408.0</ele>
      </trkpt>
      <trkpt lat="44.586305" lon="6.950784">
        <time>1970-01-01T00:00:00+00:00</time>
        <ele>2402.0</ele>
      </trkpt>
      <trkpt lat="44.586071" lon="6.950894">
        <time>1970-01-01T00:00:00+00:00</time>
        <ele>2396.0</ele>
      </trkpt>
      <trkpt lat="44.585812" lon="6.951099">
        <time>1970-01-01T00:00:00+00:00</time>
        <ele>2387.0</ele>
      </trkpt>
      <trkpt lat="44.585736" lon="6.951086">
        <time>1970-01-01T00:00:00+00:00</time>
        <ele>2386.0</ele>
      </trkpt>
      <trkpt lat="44.585627" lon="6.951002">
        <time>1970-01-01T00:00:00+00:00</time>
        <ele>2386.0</ele>
      </trkpt>
      <trkpt lat="44.58534" lon="6.950876">
        <time>1970-01-01T00:00:00+00:00</time>
        <ele>2390.0</ele>
      </trkpt>
      <trkpt lat="44.585263" lon="6.950807">
        <time>1970-01-01T00:00:00+00:00</time>
        <ele>2393.0</ele>
      </trkpt>
      <trkpt lat="44.585007" lon="6.951558">
        <time>1970-01-01T00:00:00+00:00</time>
        <ele>2382.0</ele>
      </trkpt>
      <trkpt lat="44.584826" lon="6.951969">
        <time>1970-01-01T00:00:00+00:00</time>
        <ele>2378.0</ele>
      </trkpt>
      <trkpt lat="44.584466" lon="6.95238">
        <time>1970-01-01T00:00:00+00:00</time>
        <ele>2368.0</ele>
      </trkpt>
      <trkpt lat="44.584325" lon="6.952499">
        <time>1970-01-01T00:00:00+00:00</time>
        <ele>2365.0</ele>
      </trkpt>
      <trkpt lat="44.584106" lon="6.952601">
        <time>1970-01-01T00:00:00+00:00</time>
        <ele>2360.0</ele>
      </trkpt>
      <trkpt lat="44.584004" lon="6.952791">
        <time>1970-01-01T00:00:00+00:00</time>
        <ele>2355.0</ele>
      </trkpt>
      <trkpt lat="44.583869" lon="6.95287">
        <time>1970-01-01T00:00:00+00:00</time>
        <ele>2349.0</ele>
      </trkpt>
      <trkpt lat="44.583881" lon="6.953044">
        <time>1970-01-01T00:00:00+00:00</time>
        <ele>2347.0</ele>
      </trkpt>
      <trkpt lat="44.583768" lon="6.953123">
        <time>1970-01-01T00:00:00+00:00</time>
        <ele>2343.0</ele>
      </trkpt>
      <trkpt lat="44.583768" lon="6.953249">
        <time>1970-01-01T00:00:00+00:00</time>
        <ele>2342.0</ele>
      </trkpt>
      <trkpt lat="44.583633" lon="6.953234">
        <time>1970-01-01T00:00:00+00:00</time>
        <ele>2338.0</ele>
      </trkpt>
      <trkpt lat="44.583531" lon="6.953629">
        <time>1970-01-01T00:00:00+00:00</time>
        <ele>2328.0</ele>
      </trkpt>
      <trkpt lat="44.58343" lon="6.953779">
        <time>1970-01-01T00:00:00+00:00</time>
        <ele>2322.0</ele>
      </trkpt>
      <trkpt lat="44.583272" lon="6.953914">
        <time>1970-01-01T00:00:00+00:00</time>
        <ele>2314.0</ele>
      </trkpt>
      <trkpt lat="44.583025" lon="6.953993">
        <time>1970-01-01T00:00:00+00:00</time>
        <ele>2305.0</ele>
      </trkpt>
      <trkpt lat="44.583025" lon="6.954166">
        <time>1970-01-01T00:00:00+00:00</time>
        <ele>2303.0</ele>
      </trkpt>
      <trkpt lat="44.582968" lon="6.954214">
        <time>1970-01-01T00:00:00+00:00</time>
        <ele>2301.0</ele>
      </trkpt>
      <trkpt lat="44.582811" lon="6.95423">
        <time>1970-01-01T00:00:00+00:00</time>
        <ele>2296.0</ele>
      </trkpt>
      <trkpt lat="44.582878" lon="6.95434">
        <time>1970-01-01T00:00:00+00:00</time>
        <ele>2296.0</ele>
      </trkpt>
      <trkpt lat="44.582552" lon="6.95434">
        <time>1970-01-01T00:00:00+00:00</time>
        <ele>2285.0</ele>
      </trkpt>
      <trkpt lat="44.582597" lon="6.954435">
        <time>1970-01-01T00:00:00+00:00</time>
        <ele>2284.0</ele>
      </trkpt>
      <trkpt lat="44.58236" lon="6.954593">
        <time>1970-01-01T00:00:00+00:00</time>
        <ele>2272.0</ele>
      </trkpt>
      <trkpt lat="44.582259" lon="6.954499">
        <time>1970-01-01T00:00:00+00:00</time>
        <ele>2272.0</ele>
      </trkpt>
      <trkpt lat="44.582214" lon="6.954578">
        <time>1970-01-01T00:00:00+00:00</time>
        <ele>2269.0</ele>
      </trkpt>
      <trkpt lat="44.582146" lon="6.954562">
        <time>1970-01-01T00:00:00+00:00</time>
        <ele>2268.0</ele>
      </trkpt>
      <trkpt lat="44.582101" lon="6.954696">
        <time>1970-01-01T00:00:00+00:00</time>
        <ele>2264.0</ele>
      </trkpt>
      <trkpt lat="44.582" lon="6.954807">
        <time>1970-01-01T00:00:00+00:00</time>
        <ele>2261.0</ele>
      </trkpt>
      <trkpt lat="44.581944" lon="6.954933">
        <time>1970-01-01T00:00:00+00:00</time>
        <ele>2256.0</ele>
      </trkpt>
      <trkpt lat="44.581854" lon="6.954997">
        <time>1970-01-01T00:00:00+00:00</time>
        <ele>2253.0</ele>
      </trkpt>
      <trkpt lat="44.581842" lon="6.954902">
        <time>1970-01-01T00:00:00+00:00</time>
        <ele>2256.0</ele>
      </trkpt>
      <trkpt lat="44.581763" lon="6.955004">
        <time>1970-01-01T00:00:00+00:00</time>
        <ele>2252.0</ele>
      </trkpt>
      <trkpt lat="44.581718" lon="6.955155">
        <time>1970-01-01T00:00:00+00:00</time>
        <ele>2245.0</ele>
      </trkpt>
      <trkpt lat="44.581662" lon="6.955028">
        <time>1970-01-01T00:00:00+00:00</time>
        <ele>2250.0</ele>
      </trkpt>
      <trkpt lat="44.581471" lon="6.955234">
        <time>1970-01-01T00:00:00+00:00</time>
        <ele>2241.0</ele>
      </trkpt>
      <trkpt lat="44.5812" lon="6.955329">
        <time>1970-01-01T00:00:00+00:00</time>
        <ele>2233.0</ele>
      </trkpt>
      <trkpt lat="44.580912" lon="6.955484">
        <time>1970-01-01T00:00:00+00:00</time>
        <ele>2221.0</ele>
      </trkpt>
      <trkpt lat="44.580791" lon="6.955496">
        <time>1970-01-01T00:00:00+00:00</time>
        <ele>2217.0</ele>
      </trkpt>
      <trkpt lat="44.58048" lon="6.955281">
        <time>1970-01-01T00:00:00+00:00</time>
        <ele>2210.0</ele>
      </trkpt>
      <trkpt lat="44.580304" lon="6.955272">
        <time>1970-01-01T00:00:00+00:00</time>
        <ele>2204.0</ele>
      </trkpt>
      <trkpt lat="44.580193" lon="6.955148">
        <time>1970-01-01T00:00:00+00:00</time>
        <ele>2205.0</ele>
      </trkpt>
      <trkpt lat="44.580152" lon="6.955313">
        <time>1970-01-01T00:00:00+00:00</time>
        <ele>2197.0</ele>
      </trkpt>
      <trkpt lat="44.580057" lon="6.955322">
        <time>1970-01-01T00:00:00+00:00</time>
        <ele>2192.0</ele>
      </trkpt>
      <trkpt lat="44.5799" lon="6.955186">
        <time>1970-01-01T00:00:00+00:00</time>
        <ele>2189.0</ele>
      </trkpt>
      <trkpt lat="44.57966" lon="6.955028">
        <time>1970-01-01T00:00:00+00:00</time>
        <ele>2187.0</ele>
      </trkpt>
      <trkpt lat="44.579651" lon="6.955124">
        <time>1970-01-01T00:00:00+00:00</time>
        <ele>2182.0</ele>
      </trkpt>
      <trkpt lat="44.579533" lon="6.955125">
        <time>1970-01-01T00:00:00+00:00</time>
        <ele>2178.0</ele>
      </trkpt>
      <trkpt lat="44.579527" lon="6.955219">
        <time>1970-01-01T00:00:00+00:00</time>
        <ele>2174.0</ele>
      </trkpt>
      <trkpt lat="44.57941" lon="6.955139">
        <time>1970-01-01T00:00:00+00:00</time>
        <ele>2172.0</ele>
      </trkpt>
      <trkpt lat="44.579414" lon="6.955275">
        <time>1970-01-01T00:00:00+00:00</time>
        <ele>2167.0</ele>
      </trkpt>
      <trkpt lat="44.579301" lon="6.955274">
        <time>1970-01-01T00:00:00+00:00</time>
        <ele>2162.0</ele>
      </trkpt>
      <trkpt lat="44.57929" lon="6.955408">
        <time>1970-01-01T00:00:00+00:00</time>
        <ele>2156.0</ele>
      </trkpt>
      <trkpt lat="44.579107" lon="6.95524">
        <time>1970-01-01T00:00:00+00:00</time>
        <ele>2156.0</ele>
      </trkpt>
      <trkpt lat="44.579015" lon="6.955242">
        <time>1970-01-01T00:00:00+00:00</time>
        <ele>2152.0</ele>
      </trkpt>
      <trkpt lat="44.578963" lon="6.95514">
        <time>1970-01-01T00:00:00+00:00</time>
        <ele>2153.0</ele>
      </trkpt>
      <trkpt lat="44.578922" lon="6.955179">
        <time>1970-01-01T00:00:00+00:00</time>
        <ele>2151.0</ele>
      </trkpt>
      <trkpt lat="44.578878" lon="6.955455">
        <time>1970-01-01T00:00:00+00:00</time>
        <ele>2141.0</ele>
      </trkpt>
      <trkpt lat="44.578811" lon="6.955544">
        <time>1970-01-01T00:00:00+00:00</time>
        <ele>2136.0</ele>
      </trkpt>
      <trkpt lat="44.578706" lon="6.95555">
        <time>1970-01-01T00:00:00+00:00</time>
        <ele>2132.0</ele>
      </trkpt>
      <trkpt lat="44.578649" lon="6.955438">
        <time>1970-01-01T00:00:00+00:00</time>
        <ele>2133.0</ele>
      </trkpt>
      <trkpt lat="44.578526" lon="6.955338">
        <time>1970-01-01T00:00:00+00:00</time>
        <ele>2131.0</ele>
      </trkpt>
      <trkpt lat="44.57843" lon="6.955313">
        <time>1970-01-01T00:00:00+00:00</time>
        <ele>2127.0</ele>
      </trkpt>
      <trkpt lat="44.578288" lon="6.955345">
        <time>1970-01-01T00:00:00+00:00</time>
        <ele>2119.0</ele>
      </trkpt>
      <trkpt lat="44.578276" lon="6.95544">
        <time>1970-01-01T00:00:00+00:00</time>
        <ele>2116.0</ele>
      </trkpt>
      <trkpt lat="44.578221" lon="6.955399">
        <time>1970-01-01T00:00:00+00:00</time>
        <ele>2114.0</ele>
      </trkpt>
      <trkpt lat="44.578203" lon="6.955492">
        <time>1970-01-01T00:00:00+00:00</time>
        <ele>2111.0</ele>
      </trkpt>
      <trkpt lat="44.578164" lon="6.955688">
        <time>1970-01-01T00:00:00+00:00</time>
        <ele>2106.0</ele>
      </trkpt>
      <trkpt lat="44.578118" lon="6.955623">
        <time>1970-01-01T00:00:00+00:00</time>
        <ele>2105.0</ele>
      </trkpt>
      <trkpt lat="44.578092" lon="6.955742">
        <time>1970-01-01T00:00:00+00:00</time>
        <ele>2102.0</ele>
      </trkpt>
      <trkpt lat="44.577947" lon="6.955655">
        <time>1970-01-01T00:00:00+00:00</time>
        <ele>2098.0</ele>
      </trkpt>
      <trkpt lat="44.577782" lon="6.955519">
        <time>1970-01-01T00:00:00+00:00</time>
        <ele>2095.0</ele>
      </trkpt>
      <trkpt lat="44.577782" lon="6.955646">
        <time>1970-01-01T00:00:00+00:00</time>
        <ele>2091.0</ele>
      </trkpt>
      <trkpt lat="44.577692" lon="6.955535">
        <time>1970-01-01T00:00:00+00:00</time>
        <ele>2091.0</ele>
      </trkpt>
      <trkpt lat="44.577641" lon="6.955751">
        <time>1970-01-01T00:00:00+00:00</time>
        <ele>2083.0</ele>
      </trkpt>
      <trkpt lat="44.577601" lon="6.956037">
        <time>1970-01-01T00:00:00+00:00</time>
        <ele>2074.0</ele>
      </trkpt>
      <trkpt lat="44.577619" lon="6.956261">
        <time>1970-01-01T00:00:00+00:00</time>
        <ele>2070.0</ele>
      </trkpt>
      <trkpt lat="44.577529" lon="6.956182">
        <time>1970-01-01T00:00:00+00:00</time>
        <ele>2067.0</ele>
      </trkpt>
      <trkpt lat="44.577592" lon="6.956365">
        <time>1970-01-01T00:00:00+00:00</time>
        <ele>2067.0</ele>
      </trkpt>
      <trkpt lat="44.577594" lon="6.956421">
        <time>1970-01-01T00:00:00+00:00</time>
        <ele>2067.0</ele>
      </trkpt>
      <trkpt lat="44.577585" lon="6.956548">
        <time>1970-01-01T00:00:00+00:00</time>
        <ele>2065.0</ele>
      </trkpt>
      <trkpt lat="44.577526" lon="6.956633">
        <time>1970-01-01T00:00:00+00:00</time>
        <ele>2062.0</ele>
      </trkpt>
      <trkpt lat="44.577391" lon="6.956646">
        <time>1970-01-01T00:00:00+00:00</time>
        <ele>2058.0</ele>
      </trkpt>
      <trkpt lat="44.577255" lon="6.956753">
        <time>1970-01-01T00:00:00+00:00</time>
        <ele>2054.0</ele>
      </trkpt>
      <trkpt lat="44.577134" lon="6.956899">
        <time>1970-01-01T00:00:00+00:00</time>
        <ele>2051.0</ele>
      </trkpt>
      <trkpt lat="44.576833" lon="6.957159">
        <time>1970-01-01T00:00:00+00:00</time>
        <ele>2041.0</ele>
      </trkpt>
      <trkpt lat="44.576625" lon="6.957185">
        <time>1970-01-01T00:00:00+00:00</time>
        <ele>2035.0</ele>
      </trkpt>
      <trkpt lat="44.576523" lon="6.957282">
        <time>1970-01-01T00:00:00+00:00</time>
        <ele>2032.0</ele>
      </trkpt>
      <trkpt lat="44.576458" lon="6.957497">
        <time>1970-01-01T00:00:00+00:00</time>
        <ele>2032.0</ele>
      </trkpt>
      <trkpt lat="44.576421" lon="6.957685">
        <time>1970-01-01T00:00:00+00:00</time>
        <ele>2033.0</ele>
      </trkpt>
      <trkpt lat="44.57606" lon="6.95788">
        <time>1970-01-01T00:00:00+00:00</time>
        <ele>2025.0</ele>
      </trkpt>
      <trkpt lat="44.575968" lon="6.958003">
        <time>1970-01-01T00:00:00+00:00</time>
        <ele>2023.0</ele>
      </trkpt>
      <trkpt lat="44.575917" lon="6.958205">
        <time>1970-01-01T00:00:00+00:00</time>
        <ele>2023.0</ele>
      </trkpt>
      <trkpt lat="44.575815" lon="6.958328">
        <time>1970-01-01T00:00:00+00:00</time>
        <ele>2020.0</ele>
      </trkpt>
      <trkpt lat="44.575685" lon="6.958413">
        <time>1970-01-01T00:00:00+00:00</time>
        <ele>2016.0</ele>
      </trkpt>
      <trkpt lat="44.575565" lon="6.958598">
        <time>1970-01-01T00:00:00+00:00</time>
        <ele>2013.0</ele>
      </trkpt>
      <trkpt lat="44.575565" lon="6.958874">
        <time>1970-01-01T00:00:00+00:00</time>
        <ele>2017.0</ele>
      </trkpt>
      <trkpt lat="44.57544" lon="6.958946">
        <time>1970-01-01T00:00:00+00:00</time>
        <ele>2013.0</ele>
      </trkpt>
      <trkpt lat="44.575375" lon="6.959134">
        <time>1970-01-01T00:00:00+00:00</time>
        <ele>2012.0</ele>
      </trkpt>
      <trkpt lat="44.575418" lon="6.959208">
        <time>1970-01-01T00:00:00+00:00</time>
        <ele>2014.0</ele>
      </trkpt>
      <trkpt lat="44.575481" lon="6.959401">
        <time>1970-01-01T00:00:00+00:00</time>
        <ele>2016.0</ele>
      </trkpt>
      <trkpt lat="44.575685" lon="6.959905">
        <time>1970-01-01T00:00:00+00:00</time>
        <ele>2021.0</ele>
      </trkpt>
      <trkpt lat="44.575585" lon="6.960735">
        <time>1970-01-01T00:00:00+00:00</time>
        <ele>2012.0</ele>
      </trkpt>
      <trkpt lat="44.575677" lon="6.960972">
        <time>1970-01-01T00:00:00+00:00</time>
        <ele>2017.0</ele>
      </trkpt>
      <trkpt lat="44.575672" lon="6.96105">
        <time>1970-01-01T00:00:00+00:00</time>
        <ele>2016.0</ele>
      </trkpt>
      <trkpt lat="44.57578" lon="6.961222">
        <time>1970-01-01T00:00:00+00:00</time>
        <ele>2019.0</ele>
      </trkpt>
      <trkpt lat="44.57555" lon="6.961486">
        <time>1970-01-01T00:00:00+00:00</time>
        <ele>2008.0</ele>
      </trkpt>
      <trkpt lat="44.575523" lon="6.961575">
        <time>1970-01-01T00:00:00+00:00</time>
        <ele>2006.0</ele>
      </trkpt>
      <trkpt lat="44.575494" lon="6.961667">
        <time>1970-01-01T00:00:00+00:00</time>
        <ele>2004.0</ele>
      </trkpt>
      <trkpt lat="44.575514" lon="6.961759">
        <time>1970-01-01T00:00:00+00:00</time>
        <ele>2004.0</ele>
      </trkpt>
      <trkpt lat="44.57551" lon="6.962086">
        <time>1970-01-01T00:00:00+00:00</time>
        <ele>1998.0</ele>
      </trkpt>
      <trkpt lat="44.575472" lon="6.96225">
        <time>1970-01-01T00:00:00+00:00</time>
        <ele>1993.0</ele>
      </trkpt>
      <trkpt lat="44.575585" lon="6.962534">
        <time>1970-01-01T00:00:00+00:00</time>
        <ele>1993.0</ele>
      </trkpt>
      <trkpt lat="44.575611" lon="6.962882">
        <time>1970-01-01T00:00:00+00:00</time>
        <ele>1990.0</ele>
      </trkpt>
      <trkpt lat="44.575512" lon="6.963234">
        <time>1970-01-01T00:00:00+00:00</time>
        <ele>1982.0</ele>
      </trkpt>
      <trkpt lat="44.575521" lon="6.963543">
        <time>1970-01-01T00:00:00+00:00</time>
        <ele>1977.0</ele>
      </trkpt>
      <trkpt lat="44.575605" lon="6.963835">
        <time>1970-01-01T00:00:00+00:00</time>
        <ele>1974.0</ele>
      </trkpt>
      <trkpt lat="44.575614" lon="6.964126">
        <time>1970-01-01T00:00:00+00:00</time>
        <ele>1971.0</ele>
      </trkpt>
      <trkpt lat="44.575495" lon="6.964262">
        <time>1970-01-01T00:00:00+00:00</time>
        <ele>1962.0</ele>
      </trkpt>
      <trkpt lat="44.57551" lon="6.964476">
        <time>1970-01-01T00:00:00+00:00</time>
        <ele>1960.0</ele>
      </trkpt>
      <trkpt lat="44.57556" lon="6.964636">
        <time>1970-01-01T00:00:00+00:00</time>
        <ele>1961.0</ele>
      </trkpt>
      <trkpt lat="44.575484" lon="6.964778">
        <time>1970-01-01T00:00:00+00:00</time>
        <ele>1956.0</ele>
      </trkpt>
      <trkpt lat="44.575454" lon="6.965147">
        <time>1970-01-01T00:00:00+00:00</time>
        <ele>1951.0</ele>
      </trkpt>
      <trkpt lat="44.575378" lon="6.965435">
        <time>1970-01-01T00:00:00+00:00</time>
        <ele>1945.0</ele>
      </trkpt>
      <trkpt lat="44.575381" lon="6.965665">
        <time>1970-01-01T00:00:00+00:00</time>
        <ele>1944.0</ele>
      </trkpt>
      <trkpt lat="44.575349" lon="6.96603">
        <time>1970-01-01T00:00:00+00:00</time>
        <ele>1939.0</ele>
      </trkpt>
      <trkpt lat="44.575237" lon="6.966235">
        <time>1970-01-01T00:00:00+00:00</time>
        <ele>1935.0</ele>
      </trkpt>
      <trkpt lat="44.57524" lon="6.9666">
        <time>1970-01-01T00:00:00+00:00</time>
        <ele>1934.0</ele>
      </trkpt>
      <trkpt lat="44.574901" lon="6.967004">
        <time>1970-01-01T00:00:00+00:00</time>
        <ele>1923.0</ele>
      </trkpt>
      <trkpt lat="44.574543" lon="6.968175">
        <time>1970-01-01T00:00:00+00:00</time>
        <ele>1913.0</ele>
      </trkpt>
      <trkpt lat="44.574357" lon="6.969059">
        <time>1970-01-01T00:00:00+00:00</time>
        <ele>1904.0</ele>
      </trkpt>
      <trkpt lat="44.574282" lon="6.96925">
        <time>1970-01-01T00:00:00+00:00</time>
        <ele>1902.0</ele>
      </trkpt>
      <trkpt lat="44.574152" lon="6.969396">
        <time>1970-01-01T00:00:00+00:00</time>
        <ele>1900.0</ele>
      </trkpt>
      <trkpt lat="44.57407" lon="6.969528">
        <time>1970-01-01T00:00:00+00:00</time>
        <ele>1898.0</ele>
      </trkpt>
      <trkpt lat="44.573727" lon="6.970554">
        <time>1970-01-01T00:00:00+00:00</time>
        <ele>1887.0</ele>
      </trkpt>
      <trkpt lat="44.573786" lon="6.971326">
        <time>1970-01-01T00:00:00+00:00</time>
        <ele>1878.0</ele>
      </trkpt>
      <trkpt lat="44.57378" lon="6.971454">
        <time>1970-01-01T00:00:00+00:00</time>
        <ele>1875.0</ele>
      </trkpt>
      <trkpt lat="44.573652" lon="6.971935">
        <time>1970-01-01T00:00:00+00:00</time>
        <ele>1865.0</ele>
      </trkpt>
      <trkpt lat="44.573504" lon="6.972325">
        <time>1970-01-01T00:00:00+00:00</time>
        <ele>1859.0</ele>
      </trkpt>
      <trkpt lat="44.573312" lon="6.972739">
        <time>1970-01-01T00:00:00+00:00</time>
        <ele>1852.0</ele>
      </trkpt>
      <trkpt lat="44.573245" lon="6.972903">
        <time>1970-01-01T00:00:00+00:00</time>
        <ele>1851.0</ele>
      </trkpt>
      <trkpt lat="44.573213" lon="6.97301">
        <time>1970-01-01T00:00:00+00:00</time>
        <ele>1851.0</ele>
      </trkpt>
      <trkpt lat="44.573225" lon="6.973054">
        <time>1970-01-01T00:00:00+00:00</time>
        <ele>1850.0</ele>
      </trkpt>
    </trkseg>
  </trk>
</gpx>
